| time (UTC) | temp F | wind direction | speed MPH | gust MPH | rain 1hr in | rain 24hr in | rain mn in | humidity % | barometer mb |
| 20260505024924 | 52 | 225 | 0.0 | 0.0 | 0.00 | 0.00 | 0.00 | 20 | 1004.9 |
| 20260505024826 | 52 | 225 | 0.0 | 0.0 | 0.00 | 0.00 | 0.00 | 21 | 1005.0 |
| 20260505024728 | 52 | 225 | 0.0 | 0.0 | 0.00 | 0.00 | 0.00 | 22 | 1005.0 |
| 20260505024652 | 52 | 225 | 0.0 | 0.0 | 0.00 | 0.00 | 0.00 | 23 | 1005.0 |
| 20260505024613 | 52 | 225 | 0.0 | 0.0 | 0.00 | 0.00 | 0.00 | 23 | 1005.0 |
| 20260505024518 | 52 | 225 | 0.0 | 0.0 | 0.00 | 0.00 | 0.00 | 24 | 1005.0 |
| 20260505024439 | 52 | 225 | 0.0 | 0.0 | 0.00 | 0.00 | 0.00 | 24 | 1005.0 |
| 20260505024313 | 52 | 225 | 0.0 | 0.0 | 0.00 | 0.00 | 0.00 | 25 | 1005.0 |
| 20260505024229 | 52 | 225 | 0.0 | 0.0 | 0.00 | 0.00 | 0.00 | 26 | 1005.0 |
| 20260505024040 | 53 | 225 | 0.0 | 0.0 | 0.00 | 0.00 | 0.00 | 27 | 1005.0 |
| 20260505023954 | 53 | 225 | 0.0 | 0.0 | 0.00 | 0.00 | 0.00 | 28 | 1005.0 |
| 20260505023823 | 53 | 225 | 0.0 | 0.0 | 0.00 | 0.00 | 0.00 | 30 | 1005.0 |
| 20260505023742 | 53 | 225 | 0.0 | 0.0 | 0.00 | 0.00 | 0.00 | 30 | 1005.1 |
| 20260505023614 | 53 | 225 | 0.0 | 0.0 | 0.00 | 0.00 | 0.00 | 31 | 1005.1 |
| 20260505023526 | 53 | 225 | 0.0 | 0.0 | 0.00 | 0.00 | 0.00 | 32 | 1005.1 |
| 20260505023356 | 53 | 225 | 0.0 | 0.0 | 0.00 | 0.00 | 0.00 | 34 | 1005.2 |
| 20260505023258 | 53 | 225 | 0.0 | 0.0 | 0.00 | 0.00 | 0.00 | 35 | 1005.2 |
| 20260505023213 | 53 | 225 | 0.0 | 0.0 | 0.00 | 0.00 | 0.00 | 34 | 1005.2 |
| 20260505023114 | 53 | 225 | 0.0 | 0.0 | 0.00 | 0.00 | 0.00 | 34 | 1005.3 |
| 20260505023039 | 54 | 225 | 0.0 | 0.0 | 0.00 | 0.00 | 0.00 | 35 | 1005.2 |
| 20260505022821 | 54 | 225 | 0.0 | 0.0 | 0.00 | 0.00 | 0.00 | 35 | 1005.2 |
| 20260505022745 | 54 | 225 | 0.0 | 0.0 | 0.00 | 0.00 | 0.00 | 35 | 1005.2 |
| 20260505022647 | 54 | 225 | 0.0 | 0.0 | 0.00 | 0.00 | 0.00 | 35 | 1005.3 |
| 20260505022608 | 54 | 225 | 0.0 | 0.0 | 0.00 | 0.00 | 0.00 | 35 | 1005.3 |
| 20260505022418 | 54 | 225 | 0.0 | 0.0 | 0.00 | 0.00 | 0.00 | 35 | 1005.3 |
| 20260505022333 | 54 | 225 | 0.0 | 0.0 | 0.00 | 0.00 | 0.00 | 35 | 1005.3 |
| 20260505022141 | 54 | 225 | 0.0 | 0.0 | 0.00 | 0.00 | 0.00 | 35 | 1005.3 |
| 20260505022057 | 54 | 225 | 0.0 | 0.0 | 0.00 | 0.00 | 0.00 | 33 | 1005.3 |
| 20260505022020 | 54 | 209 | 0.0 | 0.0 | 0.00 | 0.00 | 0.00 | 32 | 1005.3 |
| 20260505021836 | 54 | 209 | 0.0 | 0.0 | 0.00 | 0.00 | 0.00 | 36 | 1005.3 |
| 20260505021739 | 54 | 209 | 0.0 | 0.0 | 0.00 | 0.00 | 0.00 | 36 | 1005.3 |
| 20260505021659 | 54 | 209 | 0.0 | 0.0 | 0.00 | 0.00 | 0.00 | 36 | 1005.3 |
| 20260505021622 | 54 | 209 | 0.0 | 0.0 | 0.00 | 0.00 | 0.00 | 36 | 1005.3 |
| 20260505021424 | 55 | 209 | 0.0 | 0.0 | 0.00 | 0.00 | 0.00 | 35 | 1005.3 |
| 20260505021348 | 55 | 209 | 0.0 | 0.0 | 0.00 | 0.00 | 0.00 | 35 | 1005.3 |
| 20260505021231 | 55 | 209 | 0.0 | 0.0 | 0.00 | 0.00 | 0.00 | 36 | 1005.3 |
| 20260505021154 | 54 | 209 | 0.0 | 0.0 | 0.00 | 0.00 | 0.00 | 36 | 1005.3 |
| 20260505020936 | 54 | 209 | 0.0 | 0.0 | 0.00 | 0.00 | 0.00 | 36 | 1005.3 |
| 20260505020858 | 54 | 209 | 0.0 | 0.0 | 0.00 | 0.00 | 0.00 | 36 | 1005.3 |
| 20260505020807 | 54 | 209 | 0.0 | 0.0 | 0.00 | 0.00 | 0.00 | 35 | 1005.3 |
| 20260505020729 | 54 | 209 | 0.0 | 0.0 | 0.00 | 0.00 | 0.00 | 35 | 1005.4 |
| 20260505020540 | 54 | 209 | 0.0 | 0.0 | 0.00 | 0.00 | 0.00 | 35 | 1005.4 |
| 20260505020434 | 54 | 209 | 0.0 | 0.0 | 0.00 | 0.00 | 0.00 | 34 | 1005.4 |
| 20260505020358 | 54 | 209 | 0.0 | 0.0 | 0.00 | 0.00 | 0.00 | 33 | 1005.4 |
| 20260505020311 | 54 | 209 | 0.0 | 0.0 | 0.00 | 0.00 | 0.00 | 33 | 1005.3 |
| 20260505020232 | 54 | 209 | 0.0 | 0.0 | 0.00 | 0.00 | 0.00 | 32 | 1005.3 |
| 20260505015936 | 54 | 209 | 0.0 | 2.0 | 0.00 | 0.00 | 0.00 | 28 | 1005.3 |
| 20260505015825 | 54 | 209 | 0.0 | 2.0 | 0.00 | 0.00 | 0.00 | 28 | 1005.2 |
| 20260505015745 | 54 | 209 | 0.0 | 2.0 | 0.00 | 0.00 | 0.00 | 30 | 1005.2 |
| 20260505015617 | 54 | 209 | 0.0 | 3.0 | 0.00 | 0.00 | 0.00 | 29 | 1005.2 |
| 20260505015532 | 54 | 209 | 0.0 | 3.0 | 0.00 | 0.00 | 0.00 | 28 | 1005.2 |
| 20260505015341 | 54 | 209 | 0.0 | 3.0 | 0.00 | 0.00 | 0.00 | 28 | 1005.2 |
| 20260505015257 | 54 | 209 | 0.0 | 3.0 | 0.00 | 0.00 | 0.00 | 30 | 1005.2 |
| 20260505015218 | 54 | 209 | 0.0 | 3.0 | 0.00 | 0.00 | 0.00 | 30 | 1005.2 |
| 20260505015035 | 54 | 218 | 0.0 | 3.0 | 0.00 | 0.00 | 0.00 | 28 | 1005.1 |
| 20260505014936 | 54 | 218 | 1.0 | 3.0 | 0.00 | 0.00 | 0.00 | 29 | 1005.1 |
| 20260505014822 | 54 | 215 | 1.0 | 3.0 | 0.00 | 0.00 | 0.00 | 27 | 1005.1 |
| 20260505014745 | 54 | 165 | 1.0 | 2.0 | 0.00 | 0.00 | 0.00 | 25 | 1005.1 |
| 20260505014707 | 53 | 165 | 0.0 | 2.0 | 0.00 | 0.00 | 0.00 | 24 | 1005.1 |
| 20260505014611 | 53 | 214 | 0.0 | 2.0 | 0.00 | 0.00 | 0.00 | 26 | 1005.1 |
| 20260505014532 | 53 | 214 | 0.0 | 2.0 | 0.00 | 0.00 | 0.00 | 26 | 1005.1 |
| 20260505014336 | 53 | 214 | 0.0 | 2.0 | 0.00 | 0.00 | 0.00 | 27 | 1005.0 |
| 20260505014238 | 53 | 214 | 0.0 | 2.0 | 0.00 | 0.00 | 0.00 | 27 | 1005.1 |
| 20260505014141 | 53 | 214 | 0.0 | 2.0 | 0.00 | 0.00 | 0.00 | 27 | 1005.1 |
| 20260505014045 | 53 | 214 | 0.0 | 2.0 | 0.00 | 0.00 | 0.00 | 28 | 1005.1 |
| 20260505013925 | 53 | 214 | 0.0 | 1.0 | 0.00 | 0.00 | 0.00 | 28 | 1005.2 |
| 20260505013828 | 53 | 214 | 0.0 | 1.0 | 0.00 | 0.00 | 0.00 | 28 | 1005.1 |
| 20260505013749 | 53 | 214 | 0.0 | 1.0 | 0.00 | 0.00 | 0.00 | 28 | 1005.1 |
| 20260505013620 | 53 | 214 | 0.0 | 1.0 | 0.00 | 0.00 | 0.00 | 29 | 1005.1 |
| 20260505013536 | 53 | 214 | 0.0 | 1.0 | 0.00 | 0.00 | 0.00 | 30 | 1005.0 |
| 20260505013406 | 53 | 214 | 0.0 | 1.0 | 0.00 | 0.00 | 0.00 | 29 | 1005.1 |
| 20260505013328 | 53 | 214 | 0.0 | 1.0 | 0.00 | 0.00 | 0.00 | 29 | 1005.1 |
| 20260505013133 | 54 | 214 | 0.0 | 1.0 | 0.00 | 0.00 | 0.00 | 29 | 1005.1 |
| 20260505013035 | 54 | 214 | 0.0 | 2.0 | 0.00 | 0.00 | 0.00 | 29 | 1005.2 |
| 20260505012936 | 54 | 214 | 0.0 | 2.0 | 0.00 | 0.00 | 0.00 | 27 | 1005.1 |
| 20260505012904 | 54 | 214 | 0.0 | 2.0 | 0.00 | 0.00 | 0.00 | 28 | 1005.1 |
| 20260505012824 | 54 | 214 | 0.0 | 2.0 | 0.00 | 0.00 | 0.00 | 28 | 1005.1 |
| 20260505012627 | 54 | 214 | 0.0 | 2.0 | 0.00 | 0.00 | 0.00 | 29 | 1005.1 |
| 20260505012552 | 54 | 214 | 0.0 | 2.0 | 0.00 | 0.00 | 0.00 | 30 | 1005.1 |
| 20260505012456 | 54 | 214 | 0.0 | 2.0 | 0.00 | 0.00 | 0.00 | 31 | 1005.0 |
| 20260505012358 | 54 | 214 | 0.0 | 2.0 | 0.00 | 0.00 | 0.00 | 30 | 1005.0 |
| 20260505012228 | 54 | 214 | 0.0 | 2.0 | 0.00 | 0.00 | 0.00 | 29 | 1005.0 |
| 20260505012123 | 54 | 214 | 0.0 | 0.0 | 0.00 | 0.00 | 0.00 | 28 | 1005.1 |
| 20260505011934 | 55 | 214 | 0.0 | 1.0 | 0.00 | 0.00 | 0.00 | 28 | 1005.0 |
| 20260505011738 | 55 | 214 | 0.0 | 1.0 | 0.00 | 0.00 | 0.00 | 30 | 1005.1 |
| 20260505011704 | 55 | 214 | 0.0 | 1.0 | 0.00 | 0.00 | 0.00 | 31 | 1005.1 |
| 20260505011626 | 55 | 214 | 0.0 | 1.0 | 0.00 | 0.00 | 0.00 | 31 | 1005.1 |
| 20260505011430 | 55 | 214 | 0.0 | 1.0 | 0.00 | 0.00 | 0.00 | 33 | 1005.2 |
| 20260505011353 | 55 | 214 | 0.0 | 1.0 | 0.00 | 0.00 | 0.00 | 33 | 1005.2 |
| 20260505011237 | 55 | 214 | 0.0 | 1.0 | 0.00 | 0.00 | 0.00 | 33 | 1005.0 |
| 20260505011200 | 55 | 214 | 0.0 | 1.0 | 0.00 | 0.00 | 0.00 | 34 | 1005.0 |
| 20260505011105 | 56 | 214 | 0.0 | 1.0 | 0.00 | 0.00 | 0.00 | 34 | 1005.1 |
| 20260505011026 | 56 | 214 | 0.0 | 1.0 | 0.00 | 0.00 | 0.00 | 35 | 1005.1 |
| 20260505010857 | 56 | 214 | 0.0 | 1.0 | 0.00 | 0.00 | 0.00 | 37 | 1005.0 |
| 20260505010752 | 56 | 214 | 0.0 | 1.0 | 0.00 | 0.00 | 0.00 | 39 | 1005.0 |
| 20260505010622 | 56 | 214 | 0.0 | 1.0 | 0.00 | 0.00 | 0.00 | 40 | 1005.0 |
| 20260505010525 | 56 | 214 | 0.0 | 1.0 | 0.00 | 0.00 | 0.00 | 41 | 1004.9 |
| 20260505010329 | 57 | 214 | 0.0 | 1.0 | 0.00 | 0.00 | 0.00 | 44 | 1004.9 |
| 20260505010230 | 57 | 214 | 1.0 | 1.0 | 0.00 | 0.00 | 0.00 | 45 | 1004.9 |
| 20260505010134 | 57 | 214 | 0.0 | 1.0 | 0.00 | 0.00 | 0.00 | 45 | 1004.9 |
| 20260505010058 | 57 | 214 | 0.0 | 1.0 | 0.00 | 0.00 | 0.00 | 46 | 1004.9 |
| 20260505010020 | 57 | 214 | 0.0 | 1.0 | 0.00 | 0.00 | 0.00 | 46 | 1004.9 |
| 20260505005833 | 57 | 214 | 0.0 | 1.0 | 0.00 | 0.00 | 0.00 | 48 | 1004.9 |
| 20260505005756 | 58 | 214 | 0.0 | 1.0 | 0.00 | 0.00 | 0.00 | 48 | 1004.9 |
| 20260505005625 | 58 | 214 | 0.0 | 1.0 | 0.00 | 0.00 | 0.00 | 48 | 1004.9 |
| 20260505005541 | 58 | 214 | 0.0 | 1.0 | 0.00 | 0.00 | 0.00 | 48 | 1004.9 |
| 20260505005411 | 58 | 214 | 0.0 | 1.0 | 0.00 | 0.00 | 0.00 | 49 | 1004.9 |
| 20260505005332 | 58 | 214 | 0.0 | 1.0 | 0.00 | 0.00 | 0.00 | 49 | 1004.9 |
| 20260505005137 | 59 | 214 | 0.0 | 2.0 | 0.00 | 0.00 | 0.00 | 50 | 1004.9 |
| 20260505005040 | 59 | 214 | 0.0 | 2.0 | 0.00 | 0.00 | 0.00 | 50 | 1004.9 |
| 20260505004942 | 59 | 214 | 0.0 | 2.0 | 0.00 | 0.00 | 0.00 | 50 | 1004.8 |
| 20260505004905 | 59 | 214 | 0.0 | 2.0 | 0.00 | 0.00 | 0.00 | 50 | 1004.8 |
| 20260505004826 | 59 | 214 | 0.0 | 2.0 | 0.00 | 0.00 | 0.00 | 51 | 1004.8 |
| 20260505004708 | 60 | 214 | 0.0 | 2.0 | 0.00 | 0.00 | 0.00 | 51 | 1004.8 |
| 20260505004629 | 60 | 214 | 0.0 | 2.0 | 0.00 | 0.00 | 0.00 | 51 | 1004.8 |
| 20260505004439 | 60 | 214 | 1.0 | 2.0 | 0.00 | 0.00 | 0.00 | 51 | 1004.8 |
| 20260505004340 | 60 | 214 | 0.0 | 2.0 | 0.00 | 0.00 | 0.00 | 51 | 1004.7 |
| 20260505004243 | 61 | 214 | 0.0 | 2.0 | 0.00 | 0.00 | 0.00 | 51 | 1004.7 |
| 20260505004205 | 61 | 214 | 0.0 | 2.0 | 0.00 | 0.00 | 0.00 | 52 | 1004.8 |
| 20260505004035 | 61 | 214 | 1.0 | 4.0 | 0.00 | 0.00 | 0.00 | 52 | 1004.7 |
| 20260505003928 | 61 | 214 | 1.0 | 4.0 | 0.00 | 0.00 | 0.00 | 52 | 1004.8 |
| 20260505003757 | 61 | 214 | 1.0 | 4.0 | 0.00 | 0.00 | 0.00 | 49 | 1004.7 |
| 20260505003658 | 61 | 202 | 1.0 | 4.0 | 0.00 | 0.00 | 0.00 | 50 | 1004.7 |
| 20260505003542 | 62 | 200 | 1.0 | 4.0 | 0.00 | 0.00 | 0.00 | 51 | 1004.8 |
| 20260505003515 | 62 | 200 | 1.0 | 4.0 | 0.00 | 0.00 | 0.00 | 51 | 1004.7 |
| 20260505003322 | 62 | 178 | 1.0 | 4.0 | 0.00 | 0.00 | 0.00 | 49 | 1004.7 |
| 20260505003245 | 62 | 178 | 2.0 | 5.0 | 0.00 | 0.00 | 0.00 | 48 | 1004.7 |
| 20260505003129 | 62 | 194 | 2.0 | 5.0 | 0.00 | 0.00 | 0.00 | 50 | 1004.7 |
| 20260505003053 | 62 | 186 | 2.0 | 5.0 | 0.00 | 0.00 | 0.00 | 48 | 1004.7 |
| 20260505003016 | 63 | 137 | 2.0 | 5.0 | 0.00 | 0.00 | 0.00 | 49 | 1004.6 |
| 20260505002920 | 63 | 157 | 1.0 | 5.0 | 0.00 | 0.00 | 0.00 | 48 | 1004.7 |
| 20260505002841 | 63 | 163 | 2.0 | 5.0 | 0.00 | 0.00 | 0.00 | 48 | 1004.7 |
| 20260505002712 | 63 | 155 | 2.0 | 5.0 | 0.00 | 0.00 | 0.00 | 48 | 1004.7 |
| 20260505002626 | 63 | 144 | 3.0 | 5.0 | 0.00 | 0.00 | 0.00 | 47 | 1004.7 |
| 20260505002438 | 63 | 211 | 3.0 | 7.0 | 0.00 | 0.00 | 0.00 | 47 | 1004.6 |
| 20260505002338 | 63 | 185 | 2.0 | 7.0 | 0.00 | 0.00 | 0.00 | 48 | 1004.6 |
| 20260505002231 | 63 | 223 | 2.0 | 7.0 | 0.00 | 0.00 | 0.00 | 46 | 1004.6 |
| 20260505002153 | 63 | 220 | 2.0 | 7.0 | 0.00 | 0.00 | 0.00 | 46 | 1004.6 |
| 20260505002114 | 63 | 215 | 2.0 | 7.0 | 0.00 | 0.00 | 0.00 | 46 | 1004.6 |
| 20260505001947 | 63 | 193 | 2.0 | 7.0 | 0.00 | 0.00 | 0.00 | 46 | 1004.6 |
| 20260505001839 | 63 | 200 | 2.0 | 7.0 | 0.00 | 0.00 | 0.00 | 46 | 1004.6 |
| 20260505001741 | 64 | 204 | 3.0 | 7.0 | 0.00 | 0.00 | 0.00 | 46 | 1004.5 |
| 20260505001642 | 64 | 190 | 3.0 | 7.0 | 0.00 | 0.00 | 0.00 | 47 | 1004.5 |
| 20260505001541 | 64 | 188 | 2.0 | 5.0 | 0.00 | 0.00 | 0.00 | 46 | 1004.5 |
| 20260505001427 | 64 | 150 | 2.0 | 5.0 | 0.00 | 0.00 | 0.00 | 46 | 1004.5 |
| 20260505001351 | 64 | 206 | 3.0 | 5.0 | 0.00 | 0.00 | 0.00 | 46 | 1004.5 |
| 20260505001312 | 64 | 200 | 3.0 | 5.0 | 0.00 | 0.00 | 0.00 | 46 | 1004.5 |
| 20260505001151 | 64 | 200 | 2.0 | 5.0 | 0.00 | 0.00 | 0.00 | 46 | 1004.5 |
| 20260505001054 | 64 | 196 | 2.0 | 4.0 | 0.00 | 0.00 | 0.00 | 46 | 1004.5 |
| 20260505001016 | 64 | 177 | 2.0 | 6.0 | 0.00 | 0.00 | 0.00 | 47 | 1004.5 |
| 20260505000921 | 64 | 170 | 2.0 | 6.0 | 0.00 | 0.00 | 0.00 | 45 | 1004.4 |
| 20260505000729 | 65 | 168 | 2.0 | 6.0 | 0.00 | 0.00 | 0.00 | 45 | 1004.4 |
| 20260505000623 | 65 | 178 | 1.0 | 6.0 | 0.00 | 0.00 | 0.00 | 44 | 1004.4 |
| 20260505000547 | 65 | 146 | 1.0 | 6.0 | 0.00 | 0.00 | 0.00 | 44 | 1004.4 |
| 20260505000444 | 65 | 185 | 2.0 | 6.0 | 0.00 | 0.00 | 0.00 | 44 | 1004.4 |
| 20260505000406 | 65 | 185 | 2.0 | 6.0 | 0.00 | 0.00 | 0.00 | 44 | 1004.4 |
| 20260505000326 | 65 | 153 | 3.0 | 6.0 | 0.00 | 0.00 | 0.00 | 44 | 1004.4 |
| 20260505000211 | 65 | 193 | 4.0 | 6.0 | 0.00 | 0.00 | 0.00 | 44 | 1004.4 |
| 20260505000130 | 65 | 202 | 4.0 | 6.0 | 0.00 | 0.00 | 0.00 | 44 | 1004.4 |
| 20260504235934 | 65 | 190 | 2.0 | 9.0 | 0.00 | 0.00 | 0.00 | 44 | 1004.3 |
| 20260504235835 | 65 | 198 | 3.0 | 10.0 | 0.00 | 0.00 | 0.00 | 43 | 1004.3 |
| 20260504235737 | 65 | 190 | 4.0 | 10.0 | 0.00 | 0.00 | 0.00 | 43 | 1004.3 |
| 20260504235659 | 65 | 172 | 4.0 | 10.0 | 0.00 | 0.00 | 0.00 | 43 | 1004.3 |
| 20260504235621 | 66 | 146 | 4.0 | 10.0 | 0.00 | 0.00 | 0.00 | 43 | 1004.3 |
| 20260504235428 | 66 | 221 | 4.0 | 10.0 | 0.00 | 0.00 | 0.00 | 43 | 1004.3 |
| 20260504235353 | 66 | 187 | 5.0 | 10.0 | 0.00 | 0.00 | 0.00 | 43 | 1004.3 |
| 20260504235259 | 66 | 121 | 6.0 | 10.0 | 0.00 | 0.00 | 0.00 | 43 | 1004.2 |
| 20260504235220 | 66 | 175 | 7.0 | 10.0 | 0.00 | 0.00 | 0.00 | 42 | 1004.3 |
| 20260504235024 | 65 | 199 | 4.0 | 9.0 | 0.00 | 0.00 | 0.00 | 43 | 1004.2 |
| 20260504234925 | 66 | 197 | 3.0 | 8.0 | 0.00 | 0.00 | 0.00 | 43 | 1004.2 |
| 20260504234830 | 66 | 187 | 3.0 | 8.0 | 0.00 | 0.00 | 0.00 | 43 | 1004.3 |
| 20260504234727 | 66 | 167 | 3.0 | 8.0 | 0.00 | 0.00 | 0.00 | 43 | 1004.3 |
| 20260504234537 | 66 | 236 | 2.0 | 9.0 | 0.00 | 0.00 | 0.00 | 43 | 1004.3 |
| 20260504234437 | 66 | 257 | 3.0 | 9.0 | 0.00 | 0.00 | 0.00 | 44 | 1004.3 |
| 20260504234313 | 66 | 174 | 4.0 | 9.0 | 0.00 | 0.00 | 0.00 | 43 | 1004.3 |
| 20260504234246 | 66 | 173 | 5.0 | 9.0 | 0.00 | 0.00 | 0.00 | 42 | 1004.3 |
| 20260504234127 | 66 | 158 | 4.0 | 9.0 | 0.00 | 0.00 | 0.00 | 43 | 1004.2 |
| 20260504234051 | 66 | 186 | 3.0 | 9.0 | 0.00 | 0.00 | 0.00 | 43 | 1004.2 |
| 20260504234014 | 66 | 154 | 3.0 | 9.0 | 0.00 | 0.00 | 0.00 | 42 | 1004.2 |
| 20260504233915 | 66 | 201 | 4.0 | 9.0 | 0.00 | 0.00 | 0.00 | 42 | 1004.2 |
| 20260504233837 | 66 | 195 | 5.0 | 9.0 | 0.00 | 0.00 | 0.00 | 43 | 1004.2 |
| 20260504233706 | 66 | 196 | 5.0 | 8.0 | 0.00 | 0.00 | 0.00 | 42 | 1004.1 |
| 20260504233620 | 66 | 186 | 4.0 | 8.0 | 0.00 | 0.00 | 0.00 | 42 | 1004.1 |
| 20260504233407 | 66 | 236 | 3.0 | 7.0 | 0.00 | 0.00 | 0.00 | 43 | 1004.1 |
| 20260504233238 | 66 | 182 | 3.0 | 7.0 | 0.00 | 0.00 | 0.00 | 42 | 1004.0 |
| 20260504233131 | 66 | 191 | 4.0 | 7.0 | 0.00 | 0.00 | 0.00 | 42 | 1004.0 |
| 20260504232942 | 66 | 184 | 4.0 | 7.0 | 0.00 | 0.00 | 0.00 | 42 | 1004.0 |
| 20260504232838 | 66 | 221 | 4.0 | 7.0 | 0.00 | 0.00 | 0.00 | 42 | 1004.0 |
| 20260504232721 | 66 | 207 | 4.0 | 6.0 | 0.00 | 0.00 | 0.00 | 42 | 1003.9 |
| 20260504232644 | 66 | 184 | 3.0 | 6.0 | 0.00 | 0.00 | 0.00 | 43 | 1003.9 |
| 20260504232608 | 66 | 183 | 2.0 | 10.0 | 0.00 | 0.00 | 0.00 | 42 | 1004.0 |
| 20260504232430 | 67 | 221 | 2.0 | 10.0 | 0.00 | 0.00 | 0.00 | 42 | 1003.8 |
| 20260504232356 | 67 | 221 | 3.0 | 10.0 | 0.00 | 0.00 | 0.00 | 42 | 1003.8 |
| 20260504232208 | 67 | 188 | 3.0 | 10.0 | 0.00 | 0.00 | 0.00 | 42 | 1003.8 |
| 20260504232016 | 67 | 221 | 4.0 | 10.0 | 0.00 | 0.00 | 0.00 | 41 | 1003.8 |
| 20260504231938 | 67 | 223 | 4.0 | 10.0 | 0.00 | 0.00 | 0.00 | 41 | 1003.7 |
| 20260504231809 | 67 | 213 | 5.0 | 10.0 | 0.00 | 0.00 | 0.00 | 41 | 1003.8 |
| 20260504231623 | 67 | 208 | 4.0 | 8.0 | 0.00 | 0.00 | 0.00 | 41 | 1003.7 |
| 20260504231525 | 67 | 229 | 4.0 | 8.0 | 0.00 | 0.00 | 0.00 | 41 | 1003.8 |
| 20260504231446 | 67 | 205 | 3.0 | 8.0 | 0.00 | 0.00 | 0.00 | 41 | 1003.8 |
| 20260504231350 | 67 | 236 | 3.0 | 8.0 | 0.00 | 0.00 | 0.00 | 41 | 1003.8 |
| 20260504231232 | 67 | 212 | 3.0 | 8.0 | 0.00 | 0.00 | 0.00 | 41 | 1003.8 |
| 20260504231148 | 67 | 178 | 3.0 | 8.0 | 0.00 | 0.00 | 0.00 | 41 | 1003.8 |
| 20260504231031 | 67 | 190 | 5.0 | 8.0 | 0.00 | 0.00 | 0.00 | 41 | 1003.7 |
| 20260504230955 | 67 | 169 | 5.0 | 8.0 | 0.00 | 0.00 | 0.00 | 42 | 1003.7 |
| 20260504230911 | 67 | 190 | 4.0 | 8.0 | 0.00 | 0.00 | 0.00 | 41 | 1003.8 |
| 20260504230631 | 67 | 193 | 4.0 | 8.0 | 0.00 | 0.00 | 0.00 | 41 | 1003.7 |
| 20260504230525 | 67 | 186 | 3.0 | 8.0 | 0.00 | 0.00 | 0.00 | 41 | 1003.7 |
| 20260504230448 | 67 | 186 | 2.0 | 8.0 | 0.00 | 0.00 | 0.00 | 41 | 1003.7 |
| 20260504230406 | 67 | 222 | 1.0 | 8.0 | 0.00 | 0.00 | 0.00 | 41 | 1003.7 |
| 20260504230337 | 67 | 240 | 2.0 | 8.0 | 0.00 | 0.00 | 0.00 | 41 | 1003.7 |
| 20260504230131 | 67 | 207 | 3.0 | 8.0 | 0.00 | 0.00 | 0.00 | 41 | 1003.7 |
| 20260504230025 | 67 | 158 | 3.0 | 8.0 | 0.00 | 0.00 | 0.00 | 40 | 1003.7 |
| 20260504225959 | 68 | 195 | 3.0 | 8.0 | 0.00 | 0.00 | 0.00 | 40 | 1003.7 |
| 20260504225824 | 68 | 207 | 4.0 | 8.0 | 0.00 | 0.00 | 0.00 | 40 | 1003.6 |
| 20260504225740 | 68 | 241 | 2.0 | 8.0 | 0.00 | 0.00 | 0.00 | 41 | 1003.6 |
| 20260504225641 | 68 | 191 | 2.0 | 8.0 | 0.00 | 0.00 | 0.00 | 41 | 1003.6 |
| 20260504225546 | 68 | 222 | 3.0 | 8.0 | 0.00 | 0.00 | 0.00 | 41 | 1003.6 |
| 20260504225507 | 68 | 205 | 4.0 | 8.0 | 0.00 | 0.00 | 0.00 | 41 | 1003.5 |
| 20260504225430 | 68 | 177 | 4.0 | 8.0 | 0.00 | 0.00 | 0.00 | 40 | 1003.5 |
| 20260504225316 | 68 | 169 | 4.0 | 9.0 | 0.00 | 0.00 | 0.00 | 40 | 1003.6 |
| 20260504225237 | 68 | 195 | 3.0 | 7.0 | 0.00 | 0.00 | 0.00 | 40 | 1003.6 |
| 20260504225108 | 68 | 202 | 3.0 | 7.0 | 0.00 | 0.00 | 0.00 | 40 | 1003.5 |
| 20260504225004 | 68 | 184 | 3.0 | 8.0 | 0.00 | 0.00 | 0.00 | 40 | 1003.5 |
| 20260504224835 | 68 | 263 | 4.0 | 11.0 | 0.00 | 0.00 | 0.00 | 39 | 1003.4 |
| 20260504224734 | 68 | 263 | 5.0 | 11.0 | 0.00 | 0.00 | 0.00 | 39 | 1003.5 |
| 20260504224536 | 68 | 175 | 5.0 | 11.0 | 0.00 | 0.00 | 0.00 | 39 | 1003.5 |
| 20260504224458 | 68 | 221 | 4.0 | 11.0 | 0.00 | 0.00 | 0.00 | 39 | 1003.5 |
| 20260504224401 | 68 | 244 | 4.0 | 11.0 | 0.00 | 0.00 | 0.00 | 39 | 1003.4 |
| 20260504224244 | 68 | 193 | 6.0 | 11.0 | 0.00 | 0.00 | 0.00 | 39 | 1003.4 |
| 20260504224131 | 69 | 197 | 7.0 | 11.0 | 0.00 | 0.00 | 0.00 | 39 | 1003.3 |
| 20260504224055 | 69 | 190 | 6.0 | 11.0 | 0.00 | 0.00 | 0.00 | 39 | 1003.3 |
| 20260504224016 | 69 | 191 | 4.0 | 11.0 | 0.00 | 0.00 | 0.00 | 39 | 1003.4 |
| 20260504223920 | 69 | 157 | 5.0 | 11.0 | 0.00 | 0.00 | 0.00 | 39 | 1003.3 |
| 20260504223820 | 69 | 229 | 7.0 | 11.0 | 0.00 | 0.00 | 0.00 | 39 | 1003.3 |
| 20260504223653 | 69 | 178 | 7.0 | 12.0 | 0.00 | 0.00 | 0.00 | 39 | 1003.4 |
| 20260504223545 | 69 | 207 | 7.0 | 11.0 | 0.00 | 0.00 | 0.00 | 39 | 1003.4 |
| 20260504223415 | 69 | 170 | 5.0 | 12.0 | 0.00 | 0.00 | 0.00 | 38 | 1003.4 |
| 20260504223338 | 69 | 197 | 5.0 | 11.0 | 0.00 | 0.00 | 0.00 | 38 | 1003.3 |
| 20260504223121 | 69 | 198 | 7.0 | 11.0 | 0.00 | 0.00 | 0.00 | 38 | 1003.3 |
| 20260504223046 | 69 | 206 | 6.0 | 11.0 | 0.00 | 0.00 | 0.00 | 39 | 1003.3 |
| 20260504222932 | 69 | 255 | 5.0 | 13.0 | 0.00 | 0.00 | 0.00 | 39 | 1003.4 |
| 20260504222856 | 69 | 180 | 5.0 | 13.0 | 0.00 | 0.00 | 0.00 | 39 | 1003.3 |
| 20260504222739 | 69 | 230 | 5.0 | 13.0 | 0.00 | 0.00 | 0.00 | 39 | 1003.4 |
| 20260504222700 | 69 | 144 | 5.0 | 13.0 | 0.00 | 0.00 | 0.00 | 40 | 1003.4 |
| 20260504222621 | 69 | 209 | 6.0 | 13.0 | 0.00 | 0.00 | 0.00 | 39 | 1003.4 |
| 20260504222425 | 69 | 257 | 5.0 | 10.0 | 0.00 | 0.00 | 0.00 | 40 | 1003.4 |
| 20260504222349 | 69 | 206 | 4.0 | 10.0 | 0.00 | 0.00 | 0.00 | 39 | 1003.4 |
| 20260504222234 | 69 | 181 | 4.0 | 10.0 | 0.00 | 0.00 | 0.00 | 39 | 1003.4 |
| 20260504222128 | 69 | 188 | 5.0 | 10.0 | 0.00 | 0.00 | 0.00 | 40 | 1003.4 |
| 20260504222055 | 69 | 187 | 5.0 | 10.0 | 0.00 | 0.00 | 0.00 | 39 | 1003.4 |
| 20260504222017 | 69 | 174 | 6.0 | 11.0 | 0.00 | 0.00 | 0.00 | 39 | 1003.4 |
| 20260504221918 | 69 | 194 | 6.0 | 11.0 | 0.00 | 0.00 | 0.00 | 40 | 1003.3 |
| 20260504221800 | 69 | 159 | 6.0 | 11.0 | 0.00 | 0.00 | 0.00 | 39 | 1003.4 |
| 20260504221700 | 69 | 211 | 5.0 | 11.0 | 0.00 | 0.00 | 0.00 | 40 | 1003.4 |
| 20260504221621 | 69 | 197 | 5.0 | 11.0 | 0.00 | 0.00 | 0.00 | 39 | 1003.4 |
| 20260504221426 | 69 | 205 | 4.0 | 11.0 | 0.00 | 0.00 | 0.00 | 39 | 1003.4 |
| 20260504221341 | 69 | 198 | 5.0 | 11.0 | 0.00 | 0.00 | 0.00 | 39 | 1003.4 |
| 20260504221131 | 69 | 193 | 5.0 | 12.0 | 0.00 | 0.00 | 0.00 | 39 | 1003.3 |
| 20260504221029 | 69 | 229 | 5.0 | 11.0 | 0.00 | 0.00 | 0.00 | 40 | 1003.3 |
| 20260504220953 | 69 | 159 | 5.0 | 11.0 | 0.00 | 0.00 | 0.00 | 39 | 1003.3 |
| 20260504220859 | 68 | 191 | 5.0 | 11.0 | 0.00 | 0.00 | 0.00 | 40 | 1003.4 |
| 20260504220740 | 68 | 193 | 7.0 | 13.0 | 0.00 | 0.00 | 0.00 | 39 | 1003.4 |
| 20260504220624 | 68 | 178 | 7.0 | 13.0 | 0.00 | 0.00 | 0.00 | 39 | 1003.4 |
| 20260504220548 | 68 | 213 | 6.0 | 13.0 | 0.00 | 0.00 | 0.00 | 40 | 1003.4 |
| 20260504220425 | 68 | 159 | 4.0 | 13.0 | 0.00 | 0.00 | 0.00 | 41 | 1003.5 |
| 20260504220330 | 68 | 192 | 6.0 | 13.0 | 0.00 | 0.00 | 0.00 | 40 | 1003.4 |
| 20260504220251 | 68 | 198 | 7.0 | 13.0 | 0.00 | 0.00 | 0.00 | 39 | 1003.4 |
| 20260504220125 | 68 | 232 | 8.0 | 13.0 | 0.00 | 0.00 | 0.00 | 39 | 1003.4 |
| 20260504215934 | 68 | 196 | 8.0 | 10.0 | 0.00 | 0.00 | 0.00 | 39 | 1003.5 |
| 20260504215827 | 68 | 165 | 7.0 | 15.0 | 0.00 | 0.00 | 0.00 | 40 | 1003.4 |
| 20260504215708 | 68 | 176 | 7.0 | 15.0 | 0.00 | 0.00 | 0.00 | 39 | 1003.4 |
| 20260504215629 | 68 | 179 | 7.0 | 15.0 | 0.00 | 0.00 | 0.00 | 39 | 1003.4 |
| 20260504215431 | 68 | 153 | 7.0 | 15.0 | 0.00 | 0.00 | 0.00 | 39 | 1003.4 |
| 20260504215355 | 68 | 177 | 8.0 | 15.0 | 0.00 | 0.00 | 0.00 | 39 | 1003.4 |
| 20260504215238 | 68 | 173 | 8.0 | 15.0 | 0.00 | 0.00 | 0.00 | 39 | 1003.4 |
| 20260504215148 | 68 | 136 | 9.0 | 15.0 | 0.00 | 0.00 | 0.00 | 39 | 1003.4 |
| 20260504215026 | 68 | 157 | 8.0 | 15.0 | 0.00 | 0.00 | 0.00 | 39 | 1003.3 |
| 20260504214930 | 68 | 141 | 6.0 | 12.0 | 0.00 | 0.00 | 0.00 | 39 | 1003.4 |
| 20260504214852 | 68 | 188 | 8.0 | 12.0 | 0.00 | 0.00 | 0.00 | 39 | 1003.4 |
| 20260504214814 | 68 | 161 | 8.0 | 12.0 | 0.00 | 0.00 | 0.00 | 39 | 1003.4 |
| 20260504214719 | 68 | 185 | 8.0 | 12.0 | 0.00 | 0.00 | 0.00 | 39 | 1003.4 |
| 20260504214640 | 68 | 221 | 8.0 | 13.0 | 0.00 | 0.00 | 0.00 | 39 | 1003.4 |
| 20260504214512 | 68 | 245 | 9.0 | 15.0 | 0.00 | 0.00 | 0.00 | 39 | 1003.4 |
| 20260504214427 | 68 | 200 | 8.0 | 16.0 | 0.00 | 0.00 | 0.00 | 39 | 1003.4 |
| 20260504214225 | 69 | 134 | 8.0 | 15.0 | 0.00 | 0.00 | 0.00 | 39 | 1003.4 |
| 20260504214037 | 69 | 185 | 5.0 | 15.0 | 0.00 | 0.00 | 0.00 | 40 | 1003.4 |
| 20260504213931 | 69 | 209 | 6.0 | 15.0 | 0.00 | 0.00 | 0.00 | 39 | 1003.4 |
| 20260504213859 | 69 | 238 | 7.0 | 15.0 | 0.00 | 0.00 | 0.00 | 39 | 1003.4 |
| 20260504213724 | 69 | 208 | 8.0 | 15.0 | 0.00 | 0.00 | 0.00 | 39 | 1003.3 |
| 20260504213640 | 69 | 166 | 7.0 | 16.0 | 0.00 | 0.00 | 0.00 | 38 | 1003.3 |
| 20260504213509 | 69 | 152 | 7.0 | 18.0 | 0.00 | 0.00 | 0.00 | 38 | 1003.6 |
| 20260504213432 | 69 | 195 | 8.0 | 18.0 | 0.00 | 0.00 | 0.00 | 38 | 1003.4 |
| 20260504213234 | 69 | 172 | 9.0 | 18.0 | 0.00 | 0.00 | 0.00 | 38 | 1003.2 |
| 20260504213156 | 69 | 203 | 9.0 | 18.0 | 0.00 | 0.00 | 0.00 | 38 | 1003.2 |
| 20260504213100 | 69 | 163 | 10.0 | 18.0 | 0.00 | 0.00 | 0.00 | 37 | 1003.3 |
| 20260504212942 | 69 | 188 | 9.0 | 18.0 | 0.00 | 0.00 | 0.00 | 38 | 1003.3 |
| 20260504212830 | 69 | 160 | 9.0 | 18.0 | 0.00 | 0.00 | 0.00 | 37 | 1003.3 |
| 20260504212752 | 69 | 153 | 8.0 | 18.0 | 0.00 | 0.00 | 0.00 | 37 | 1003.3 |
| 20260504212708 | 70 | 114 | 7.0 | 15.0 | 0.00 | 0.00 | 0.00 | 38 | 1003.3 |
| 20260504212516 | 70 | 195 | 9.0 | 15.0 | 0.00 | 0.00 | 0.00 | 38 | 1003.3 |
| 20260504212438 | 70 | 168 | 8.0 | 15.0 | 0.00 | 0.00 | 0.00 | 38 | 1003.2 |
| 20260504212301 | 70 | 172 | 9.0 | 15.0 | 0.00 | 0.00 | 0.00 | 39 | 1003.2 |
| 20260504212222 | 70 | 169 | 9.0 | 15.0 | 0.00 | 0.00 | 0.00 | 39 | 1003.4 |
| 20260504212034 | 70 | 142 | 7.0 | 22.0 | 0.00 | 0.00 | 0.00 | 39 | 1003.3 |
| 20260504211927 | 70 | 222 | 5.0 | 22.0 | 0.00 | 0.00 | 0.00 | 40 | 1003.3 |
| 20260504211851 | 69 | 172 | 5.0 | 22.0 | 0.00 | 0.00 | 0.00 | 40 | 1003.3 |
| 20260504211738 | 69 | 187 | 5.0 | 22.0 | 0.00 | 0.00 | 0.00 | 39 | 1003.2 |
| 20260504211700 | 69 | 169 | 5.0 | 22.0 | 0.00 | 0.00 | 0.00 | 40 | 1003.2 |
| 20260504211615 | 69 | 199 | 5.0 | 22.0 | 0.00 | 0.00 | 0.00 | 39 | 1003.2 |
| 20260504211427 | 69 | 224 | 9.0 | 22.0 | 0.00 | 0.00 | 0.00 | 40 | 1003.2 |
| 20260504211344 | 69 | 211 | 13.0 | 22.0 | 0.00 | 0.00 | 0.00 | 39 | 1003.2 |
| 20260504211213 | 69 | 136 | 9.0 | 22.0 | 0.00 | 0.00 | 0.00 | 39 | 1003.3 |
| 20260504211135 | 69 | 183 | 7.0 | 14.0 | 0.00 | 0.00 | 0.00 | 39 | 1003.2 |
| 20260504210938 | 69 | 157 | 7.0 | 16.0 | 0.00 | 0.00 | 0.00 | 39 | 1003.0 |
| 20260504210841 | 69 | 167 | 8.0 | 16.0 | 0.00 | 0.00 | 0.00 | 39 | 1003.2 |
| 20260504210725 | 69 | 161 | 7.0 | 16.0 | 0.00 | 0.00 | 0.00 | 39 | 1003.2 |
| 20260504210650 | 69 | 213 | 5.0 | 16.0 | 0.00 | 0.00 | 0.00 | 39 | 1003.2 |
| 20260504210610 | 69 | 200 | 6.0 | 16.0 | 0.00 | 0.00 | 0.00 | 40 | 1003.2 |
| 20260504210515 | 69 | 186 | 5.0 | 16.0 | 0.00 | 0.00 | 0.00 | 39 | 1003.2 |
| 20260504210437 | 69 | 214 | 7.0 | 16.0 | 0.00 | 0.00 | 0.00 | 39 | 1003.2 |
| 20260504210231 | 69 | 174 | 7.0 | 15.0 | 0.00 | 0.00 | 0.00 | 39 | 1003.3 |
| 20260504210132 | 69 | 188 | 6.0 | 15.0 | 0.00 | 0.00 | 0.00 | 39 | 1003.2 |
| 20260504210036 | 69 | 238 | 6.0 | 15.0 | 0.00 | 0.00 | 0.00 | 40 | 1003.2 |
| 20260504205939 | 69 | 198 | 8.0 | 15.0 | 0.00 | 0.00 | 0.00 | 40 | 1003.3 |
| 20260504205629 | 69 | 263 | 8.0 | 15.0 | 0.00 | 0.00 | 0.00 | 39 | 1003.4 |
| 20260504205535 | 69 | 193 | 8.0 | 13.0 | 0.00 | 0.00 | 0.00 | 40 | 1003.3 |
| 20260504205448 | 69 | 232 | 6.0 | 13.0 | 0.00 | 0.00 | 0.00 | 40 | 1003.2 |
| 20260504205349 | 69 | 142 | 6.0 | 13.0 | 0.00 | 0.00 | 0.00 | 41 | 1003.2 |
| 20260504205310 | 69 | 205 | 8.0 | 13.0 | 0.00 | 0.00 | 0.00 | 41 | 1003.2 |
| 20260504205112 | 69 | 255 | 6.0 | 14.0 | 0.00 | 0.00 | 0.00 | 40 | 1003.3 |
| 20260504205035 | 69 | 174 | 6.0 | 13.0 | 0.00 | 0.00 | 0.00 | 43 | 1003.2 |
| 20260504204905 | 69 | 192 | 7.0 | 15.0 | 0.00 | 0.00 | 0.00 | 40 | 1003.2 |
| 20260504204827 | 69 | 172 | 7.0 | 15.0 | 0.00 | 0.00 | 0.00 | 40 | 1003.2 |
| 20260504204629 | 69 | 171 | 7.0 | 15.0 | 0.00 | 0.00 | 0.00 | 41 | 1003.2 |
| 20260504204550 | 69 | 187 | 6.0 | 15.0 | 0.00 | 0.00 | 0.00 | 41 | 1003.2 |
| 20260504204438 | 69 | 184 | 6.0 | 15.0 | 0.00 | 0.00 | 0.00 | 41 | 1003.2 |
| 20260504204402 | 69 | 177 | 8.0 | 15.0 | 0.00 | 0.00 | 0.00 | 41 | 1003.2 |
| 20260504204223 | 69 | 169 | 10.0 | 15.0 | 0.00 | 0.00 | 0.00 | 41 | 1003.2 |
| 20260504204147 | 69 | 140 | 11.0 | 15.0 | 0.00 | 0.00 | 0.00 | 40 | 1003.2 |
| 20260504204023 | 69 | 126 | 8.0 | 15.0 | 0.00 | 0.00 | 0.00 | 41 | 1003.2 |
| 20260504203927 | 69 | 173 | 7.0 | 15.0 | 0.00 | 0.00 | 0.00 | 43 | 1003.1 |
| 20260504203851 | 69 | 163 | 7.0 | 15.0 | 0.00 | 0.00 | 0.00 | 42 | 1003.1 |
| 20260504203812 | 69 | 153 | 9.0 | 15.0 | 0.00 | 0.00 | 0.00 | 42 | 1003.1 |
| 20260504203716 | 69 | 151 | 10.0 | 15.0 | 0.00 | 0.00 | 0.00 | 41 | 1003.1 |
| 20260504203638 | 69 | 153 | 9.0 | 13.0 | 0.00 | 0.00 | 0.00 | 41 | 1003.2 |
| 20260504203513 | 68 | 164 | 5.0 | 12.0 | 0.00 | 0.00 | 0.00 | 43 | 1003.1 |
| 20260504203415 | 68 | 155 | 4.0 | 12.0 | 0.00 | 0.00 | 0.00 | 44 | 1003.2 |
| 20260504203238 | 68 | 177 | 6.0 | 12.0 | 0.00 | 0.00 | 0.00 | 43 | 1003.3 |
| 20260504203201 | 68 | 183 | 8.0 | 12.0 | 0.00 | 0.00 | 0.00 | 45 | 1003.3 |
| 20260504202944 | 68 | 171 | 8.0 | 12.0 | 0.00 | 0.00 | 0.00 | 44 | 1003.3 |
| 20260504202907 | 68 | 178 | 8.0 | 12.0 | 0.00 | 0.00 | 0.00 | 43 | 1003.3 |
| 20260504202812 | 67 | 138 | 8.0 | 12.0 | 0.00 | 0.00 | 0.00 | 44 | 1003.3 |
| 20260504202735 | 67 | 136 | 8.0 | 12.0 | 0.00 | 0.00 | 0.00 | 44 | 1003.3 |
| 20260504202604 | 67 | 163 | 8.0 | 12.0 | 0.00 | 0.00 | 0.00 | 45 | 1003.4 |
| 20260504202516 | 67 | 192 | 7.0 | 12.0 | 0.00 | 0.00 | 0.00 | 45 | 1003.4 |
| 20260504202346 | 67 | 190 | 6.0 | 12.0 | 0.00 | 0.00 | 0.00 | 45 | 1003.4 |
| 20260504202252 | 67 | 148 | 5.0 | 15.0 | 0.00 | 0.00 | 0.00 | 45 | 1003.4 |
| 20260504202153 | 67 | 164 | 6.0 | 15.0 | 0.00 | 0.00 | 0.00 | 44 | 1003.4 |
| 20260504202035 | 67 | 155 | 7.0 | 15.0 | 0.00 | 0.00 | 0.00 | 43 | 1003.5 |
| 20260504201959 | 67 | 175 | 8.0 | 15.0 | 0.00 | 0.00 | 0.00 | 43 | 1003.5 |
| 20260504201915 | 67 | 191 | 8.0 | 15.0 | 0.00 | 0.00 | 0.00 | 43 | 1003.5 |
| 20260504201725 | 67 | 173 | 5.0 | 15.0 | 0.00 | 0.00 | 0.00 | 44 | 1003.5 |
| 20260504201638 | 67 | 142 | 5.0 | 15.0 | 0.00 | 0.00 | 0.00 | 43 | 1003.6 |
| 20260504201510 | 67 | 144 | 9.0 | 15.0 | 0.00 | 0.00 | 0.00 | 43 | 1003.5 |
| 20260504201432 | 67 | 173 | 9.0 | 14.0 | 0.00 | 0.00 | 0.00 | 44 | 1003.6 |
| 20260504201233 | 67 | 183 | 6.0 | 14.0 | 0.00 | 0.00 | 0.00 | 44 | 1003.6 |
| 20260504201159 | 67 | 165 | 5.0 | 14.0 | 0.00 | 0.00 | 0.00 | 44 | 1003.6 |
| 20260504201041 | 67 | 206 | 7.0 | 14.0 | 0.00 | 0.00 | 0.00 | 43 | 1003.7 |
| 20260504201004 | 67 | 155 | 8.0 | 14.0 | 0.00 | 0.00 | 0.00 | 43 | 1003.7 |
| 20260504200918 | 67 | 243 | 8.0 | 14.0 | 0.00 | 0.00 | 0.00 | 43 | 1003.8 |
| 20260504200729 | 67 | 192 | 7.0 | 16.0 | 0.00 | 0.00 | 0.00 | 43 | 1003.7 |
| 20260504200623 | 67 | 229 | 6.0 | 16.0 | 0.00 | 0.00 | 0.00 | 44 | 1003.8 |
| 20260504200545 | 67 | 227 | 6.0 | 16.0 | 0.00 | 0.00 | 0.00 | 44 | 1003.8 |
| 20260504200500 | 67 | 234 | 7.0 | 16.0 | 0.00 | 0.00 | 0.00 | 43 | 1003.7 |
| 20260504200422 | 67 | 148 | 7.0 | 16.0 | 0.00 | 0.00 | 0.00 | 43 | 1003.7 |
| 20260504200237 | 67 | 157 | 6.0 | 16.0 | 0.00 | 0.00 | 0.00 | 44 | 1003.7 |
| 20260504200131 | 67 | 160 | 7.0 | 15.0 | 0.00 | 0.00 | 0.00 | 43 | 1003.7 |
| 20260504200053 | 68 | 171 | 8.0 | 15.0 | 0.00 | 0.00 | 0.00 | 43 | 1003.7 |
| 20260504195959 | 68 | 140 | 9.0 | 15.0 | 0.00 | 0.00 | 0.00 | 42 | 1003.8 |
| 20260504195838 | 68 | 182 | 7.0 | 15.0 | 0.00 | 0.00 | 0.00 | 43 | 1003.9 |
| 20260504195754 | 68 | 216 | 6.0 | 15.0 | 0.00 | 0.00 | 0.00 | 43 | 1003.9 |
| 20260504195723 | 68 | 155 | 7.0 | 15.0 | 0.00 | 0.00 | 0.00 | 43 | 1003.9 |
| 20260504195625 | 68 | 174 | 8.0 | 15.0 | 0.00 | 0.00 | 0.00 | 43 | 1003.8 |
| 20260504195428 | 68 | 131 | 11.0 | 15.0 | 0.00 | 0.00 | 0.00 | 42 | 1003.9 |
| 20260504195352 | 68 | 190 | 11.0 | 16.0 | 0.00 | 0.00 | 0.00 | 42 | 1003.9 |
| 20260504195239 | 68 | 139 | 10.0 | 16.0 | 0.00 | 0.00 | 0.00 | 44 | 1003.9 |
| 20260504195201 | 68 | 173 | 10.0 | 16.0 | 0.00 | 0.00 | 0.00 | 44 | 1003.9 |
| 20260504195115 | 68 | 205 | 10.0 | 16.0 | 0.00 | 0.00 | 0.00 | 43 | 1003.9 |
| 20260504194947 | 68 | 198 | 8.0 | 15.0 | 0.00 | 0.00 | 0.00 | 44 | 1003.9 |
| 20260504194728 | 67 | 165 | 6.0 | 24.0 | 0.00 | 0.00 | 0.00 | 44 | 1003.7 |
| 20260504194630 | 67 | 95 | 7.0 | 24.0 | 0.00 | 0.00 | 0.00 | 44 | 1003.7 |
| 20260504194533 | 67 | 215 | 11.0 | 24.0 | 0.00 | 0.00 | 0.00 | 43 | 1003.9 |
| 20260504194455 | 67 | 163 | 11.0 | 24.0 | 0.00 | 0.00 | 0.00 | 42 | 1003.9 |
| 20260504194418 | 67 | 120 | 10.0 | 24.0 | 0.00 | 0.00 | 0.00 | 42 | 1003.8 |
| 20260504194224 | 67 | 142 | 9.0 | 24.0 | 0.00 | 0.00 | 0.00 | 43 | 1003.9 |
| 20260504194127 | 67 | 146 | 12.0 | 24.0 | 0.00 | 0.00 | 0.00 | 44 | 1004.0 |
| 20260504194032 | 67 | 219 | 13.0 | 24.0 | 0.00 | 0.00 | 0.00 | 43 | 1003.9 |
| 20260504193954 | 67 | 145 | 11.0 | 22.0 | 0.00 | 0.00 | 0.00 | 44 | 1003.9 |
| 20260504193734 | 67 | 169 | 12.0 | 22.0 | 0.00 | 0.00 | 0.00 | 44 | 1004.0 |
| 20260504193637 | 67 | 159 | 9.0 | 22.0 | 0.00 | 0.00 | 0.00 | 44 | 1003.9 |
| 20260504193541 | 67 | 150 | 13.0 | 22.0 | 0.00 | 0.00 | 0.00 | 43 | 1003.9 |
| 20260504193441 | 67 | 167 | 13.0 | 23.0 | 0.00 | 0.00 | 0.00 | 42 | 1004.0 |
| 20260504193312 | 67 | 190 | 9.0 | 21.0 | 0.00 | 0.00 | 0.00 | 45 | 1004.0 |
| 20260504193228 | 67 | 171 | 8.0 | 21.0 | 0.00 | 0.00 | 0.00 | 44 | 1004.0 |
| 20260504193041 | 67 | 152 | 8.0 | 21.0 | 0.00 | 0.00 | 0.00 | 44 | 1004.0 |
| 20260504193004 | 67 | 150 | 7.0 | 21.0 | 0.00 | 0.00 | 0.00 | 44 | 1004.0 |
| 20260504192918 | 67 | 188 | 9.0 | 21.0 | 0.00 | 0.00 | 0.00 | 44 | 1004.1 |
| 20260504192729 | 67 | 133 | 10.0 | 21.0 | 0.00 | 0.00 | 0.00 | 44 | 1004.1 |
| 20260504192644 | 66 | 183 | 8.0 | 21.0 | 0.00 | 0.00 | 0.00 | 44 | 1004.1 |
| 20260504192515 | 66 | 174 | 9.0 | 16.0 | 0.00 | 0.00 | 0.00 | 44 | 1004.1 |
| 20260504192415 | 66 | 123 | 10.0 | 16.0 | 0.00 | 0.00 | 0.00 | 44 | 1004.1 |
| 20260504192239 | 66 | 184 | 9.0 | 16.0 | 0.00 | 0.00 | 0.00 | 44 | 1004.1 |
| 20260504192142 | 66 | 200 | 9.0 | 16.0 | 0.00 | 0.00 | 0.00 | 44 | 1004.1 |
| 20260504192028 | 67 | 156 | 10.0 | 16.0 | 0.00 | 0.00 | 0.00 | 43 | 1004.2 |
| 20260504191950 | 67 | 161 | 11.0 | 16.0 | 0.00 | 0.00 | 0.00 | 44 | 1004.2 |
| 20260504191904 | 67 | 108 | 11.0 | 16.0 | 0.00 | 0.00 | 0.00 | 43 | 1004.2 |
| 20260504191744 | 67 | 235 | 9.0 | 16.0 | 0.00 | 0.00 | 0.00 | 43 | 1004.2 |
| 20260504191647 | 67 | 146 | 8.0 | 16.0 | 0.00 | 0.00 | 0.00 | 44 | 1004.2 |
| 20260504191523 | 67 | 246 | 11.0 | 16.0 | 0.00 | 0.00 | 0.00 | 45 | 1004.1 |
| 20260504191427 | 67 | 192 | 12.0 | 17.0 | 0.00 | 0.00 | 0.00 | 43 | 1004.2 |
| 20260504191328 | 67 | 175 | 8.0 | 14.0 | 0.00 | 0.00 | 0.00 | 45 | 1004.2 |
| 20260504191253 | 67 | 163 | 6.0 | 14.0 | 0.00 | 0.00 | 0.00 | 45 | 1004.2 |
| 20260504191121 | 67 | 271 | 8.0 | 14.0 | 0.00 | 0.00 | 0.00 | 45 | 1004.1 |
| 20260504191024 | 67 | 219 | 8.0 | 14.0 | 0.00 | 0.00 | 0.00 | 45 | 1004.2 |
| 20260504190948 | 67 | 175 | 9.0 | 14.0 | 0.00 | 0.00 | 0.00 | 45 | 1004.2 |
| 20260504190831 | 66 | 202 | 7.0 | 14.0 | 0.00 | 0.00 | 0.00 | 44 | 1004.1 |
| 20260504190744 | 66 | 171 | 7.0 | 14.0 | 0.00 | 0.00 | 0.00 | 44 | 1004.1 |
| 20260504190640 | 66 | 126 | 10.0 | 14.0 | 0.00 | 0.00 | 0.00 | 45 | 1004.1 |
| 20260504190522 | 66 | 184 | 10.0 | 16.0 | 0.00 | 0.00 | 0.00 | 43 | 1004.2 |
| 20260504190445 | 67 | 172 | 10.0 | 17.0 | 0.00 | 0.00 | 0.00 | 44 | 1004.2 |
| 20260504190411 | 67 | 124 | 9.0 | 16.0 | 0.00 | 0.00 | 0.00 | 43 | 1004.2 |
| 20260504190232 | 67 | 194 | 8.0 | 12.0 | 0.00 | 0.00 | 0.00 | 45 | 1004.3 |
| 20260504190154 | 67 | 155 | 7.0 | 12.0 | 0.00 | 0.00 | 0.00 | 45 | 1004.3 |
| 20260504190018 | 66 | 212 | 7.0 | 16.0 | 0.00 | 0.00 | 0.00 | 46 | 1004.3 |
| 20260504185940 | 66 | 176 | 8.0 | 16.0 | 0.00 | 0.00 | 0.00 | 45 | 1004.3 |
| 20260504185809 | 66 | 218 | 9.0 | 16.0 | 0.00 | 0.00 | 0.00 | 45 | 1004.3 |
| 20260504185720 | 66 | 178 | 10.0 | 16.0 | 0.00 | 0.00 | 0.00 | 44 | 1004.3 |
| 20260504185524 | 66 | 146 | 8.0 | 16.0 | 0.00 | 0.00 | 0.00 | 45 | 1004.5 |
| 20260504185438 | 66 | 182 | 9.0 | 16.0 | 0.00 | 0.00 | 0.00 | 45 | 1004.5 |
| 20260504185346 | 66 | 156 | 9.0 | 16.0 | 0.00 | 0.00 | 0.00 | 46 | 1004.5 |
| 20260504185250 | 65 | 146 | 7.0 | 16.0 | 0.00 | 0.00 | 0.00 | 44 | 1004.5 |
| 20260504185149 | 65 | 102 | 5.0 | 17.0 | 0.00 | 0.00 | 0.00 | 44 | 1004.5 |
| 20260504185010 | 66 | 207 | 9.0 | 17.0 | 0.00 | 0.00 | 0.00 | 44 | 1004.6 |
| 20260504184926 | 66 | 163 | 10.0 | 17.0 | 0.00 | 0.00 | 0.00 | 44 | 1004.6 |
| 20260504184704 | 65 | 159 | 6.0 | 15.0 | 0.00 | 0.00 | 0.00 | 45 | 1004.6 |
| 20260504184625 | 65 | 230 | 5.0 | 15.0 | 0.00 | 0.00 | 0.00 | 45 | 1004.6 |
| 20260504184435 | 65 | 184 | 8.0 | 15.0 | 0.00 | 0.00 | 0.00 | 44 | 1004.7 |
| 20260504184329 | 65 | 219 | 9.0 | 15.0 | 0.00 | 0.00 | 0.00 | 45 | 1004.7 |
| 20260504184138 | 65 | 131 | 9.0 | 15.0 | 0.00 | 0.00 | 0.00 | 47 | 1004.8 |
| 20260504184031 | 65 | 190 | 7.0 | 15.0 | 0.00 | 0.00 | 0.00 | 45 | 1004.8 |
| 20260504183959 | 65 | 213 | 8.0 | 23.0 | 0.00 | 0.00 | 0.00 | 47 | 1004.8 |
| 20260504183824 | 65 | 157 | 8.0 | 23.0 | 0.00 | 0.00 | 0.00 | 46 | 1004.8 |
| 20260504183738 | 65 | 180 | 7.0 | 23.0 | 0.00 | 0.00 | 0.00 | 46 | 1004.9 |
| 20260504183610 | 64 | 209 | 5.0 | 23.0 | 0.00 | 0.00 | 0.00 | 46 | 1004.8 |
| 20260504183532 | 64 | 192 | 7.0 | 23.0 | 0.00 | 0.00 | 0.00 | 45 | 1004.8 |
| 20260504183335 | 64 | 198 | 8.0 | 23.0 | 0.00 | 0.00 | 0.00 | 45 | 1004.9 |
| 20260504183258 | 64 | 160 | 10.0 | 23.0 | 0.00 | 0.00 | 0.00 | 46 | 1004.9 |
| 20260504183136 | 64 | 163 | 14.0 | 23.0 | 0.00 | 0.00 | 0.00 | 44 | 1004.9 |
| 20260504183058 | 64 | 175 | 12.0 | 23.0 | 0.00 | 0.00 | 0.00 | 44 | 1004.9 |
| 20260504183015 | 64 | 139 | 9.0 | 19.0 | 0.00 | 0.00 | 0.00 | 46 | 1005.0 |
| 20260504182845 | 64 | 144 | 8.0 | 19.0 | 0.00 | 0.00 | 0.00 | 46 | 1005.0 |
| 20260504182748 | 64 | 220 | 9.0 | 19.0 | 0.00 | 0.00 | 0.00 | 47 | 1005.0 |
| 20260504182710 | 64 | 181 | 9.0 | 19.0 | 0.00 | 0.00 | 0.00 | 46 | 1005.0 |
| 20260504182613 | 64 | 205 | 10.0 | 19.0 | 0.00 | 0.00 | 0.00 | 45 | 1004.9 |
| 20260504182537 | 64 | 171 | 9.0 | 19.0 | 0.00 | 0.00 | 0.00 | 45 | 1005.0 |
| 20260504182409 | 64 | 164 | 10.0 | 19.0 | 0.00 | 0.00 | 0.00 | 46 | 1005.0 |
| 20260504182322 | 64 | 152 | 8.0 | 19.0 | 0.00 | 0.00 | 0.00 | 46 | 1005.1 |
| 20260504182152 | 64 | 137 | 6.0 | 14.0 | 0.00 | 0.00 | 0.00 | 47 | 1005.1 |
| 20260504182054 | 64 | 126 | 7.0 | 14.0 | 0.00 | 0.00 | 0.00 | 46 | 1005.1 |
| 20260504181939 | 64 | 144 | 9.0 | 14.0 | 0.00 | 0.00 | 0.00 | 45 | 1005.3 |
| 20260504181846 | 64 | 128 | 7.0 | 14.0 | 0.00 | 0.00 | 0.00 | 46 | 1005.2 |
| 20260504181725 | 64 | 170 | 7.0 | 12.0 | 0.00 | 0.00 | 0.00 | 46 | 1005.2 |
| 20260504181647 | 64 | 235 | 8.0 | 12.0 | 0.00 | 0.00 | 0.00 | 46 | 1005.2 |
| 20260504181610 | 64 | 217 | 8.0 | 12.0 | 0.00 | 0.00 | 0.00 | 46 | 1005.2 |
| 20260504181513 | 64 | 192 | 9.0 | 14.0 | 0.00 | 0.00 | 0.00 | 46 | 1005.1 |
| 20260504181436 | 64 | 217 | 9.0 | 14.0 | 0.00 | 0.00 | 0.00 | 46 | 1005.1 |
| 20260504181305 | 64 | 161 | 7.0 | 14.0 | 0.00 | 0.00 | 0.00 | 46 | 1005.1 |
| 20260504181218 | 64 | 157 | 7.0 | 14.0 | 0.00 | 0.00 | 0.00 | 47 | 1005.1 |
| 20260504181030 | 63 | 163 | 8.0 | 14.0 | 0.00 | 0.00 | 0.00 | 46 | 1005.2 |
| 20260504180943 | 63 | 178 | 9.0 | 14.0 | 0.00 | 0.00 | 0.00 | 46 | 1005.2 |
| 20260504180815 | 63 | 204 | 8.0 | 14.0 | 0.00 | 0.00 | 0.00 | 47 | 1005.3 |
| 20260504180736 | 63 | 173 | 8.0 | 14.0 | 0.00 | 0.00 | 0.00 | 48 | 1005.3 |
| 20260504180521 | 63 | 165 | 7.0 | 13.0 | 0.00 | 0.00 | 0.00 | 47 | 1005.3 |
| 20260504180445 | 63 | 169 | 6.0 | 13.0 | 0.00 | 0.00 | 0.00 | 47 | 1005.3 |
| 20260504180327 | 62 | 200 | 7.0 | 13.0 | 0.00 | 0.00 | 0.00 | 47 | 1005.4 |
| 20260504180249 | 62 | 246 | 7.0 | 13.0 | 0.00 | 0.00 | 0.00 | 47 | 1005.4 |
| 20260504180211 | 62 | 227 | 6.0 | 13.0 | 0.00 | 0.00 | 0.00 | 48 | 1005.5 |
| 20260504180113 | 62 | 205 | 4.0 | 13.0 | 0.00 | 0.00 | 0.00 | 47 | 1005.4 |
| 20260504180036 | 62 | 208 | 4.0 | 13.0 | 0.00 | 0.00 | 0.00 | 48 | 1005.4 |
| 20260504175906 | 62 | 161 | 6.0 | 13.0 | 0.00 | 0.00 | 0.00 | 47 | 1005.5 |
| 20260504175740 | 62 | 174 | 6.0 | 14.0 | 0.00 | 0.00 | 0.00 | 47 | 1005.5 |
| 20260504175628 | 62 | 242 | 5.0 | 10.0 | 0.00 | 0.00 | 0.00 | 48 | 1005.5 |
| 20260504175550 | 62 | 204 | 5.0 | 10.0 | 0.00 | 0.00 | 0.00 | 48 | 1005.5 |
| 20260504175419 | 62 | 184 | 6.0 | 10.0 | 0.00 | 0.00 | 0.00 | 47 | 1005.6 |
| 20260504175336 | 62 | 205 | 5.0 | 11.0 | 0.00 | 0.00 | 0.00 | 47 | 1005.5 |
| 20260504175206 | 62 | 157 | 6.0 | 14.0 | 0.00 | 0.00 | 0.00 | 48 | 1005.5 |
| 20260504175127 | 62 | 265 | 6.0 | 14.0 | 0.00 | 0.00 | 0.00 | 48 | 1005.5 |
| 20260504174929 | 62 | 167 | 5.0 | 14.0 | 0.00 | 0.00 | 0.00 | 48 | 1005.6 |
| 20260504174853 | 62 | 166 | 5.0 | 14.0 | 0.00 | 0.00 | 0.00 | 47 | 1005.6 |
| 20260504174735 | 62 | 156 | 4.0 | 14.0 | 0.00 | 0.00 | 0.00 | 48 | 1005.6 |
| 20260504174658 | 62 | 155 | 5.0 | 14.0 | 0.00 | 0.00 | 0.00 | 48 | 1005.6 |
| 20260504174620 | 62 | 185 | 8.0 | 14.0 | 0.00 | 0.00 | 0.00 | 48 | 1005.6 |
| 20260504174506 | 62 | 215 | 9.0 | 14.0 | 0.00 | 0.00 | 0.00 | 48 | 1005.6 |
| 20260504174430 | 62 | 137 | 9.0 | 13.0 | 0.00 | 0.00 | 0.00 | 48 | 1005.7 |
| 20260504174223 | 61 | 158 | 5.0 | 14.0 | 0.00 | 0.00 | 0.00 | 48 | 1005.7 |
| 20260504174143 | 61 | 152 | 5.0 | 14.0 | 0.00 | 0.00 | 0.00 | 48 | 1005.7 |
| 20260504174045 | 61 | 132 | 5.0 | 14.0 | 0.00 | 0.00 | 0.00 | 48 | 1005.7 |
| 20260504173939 | 61 | 157 | 6.0 | 14.0 | 0.00 | 0.00 | 0.00 | 48 | 1005.7 |
| 20260504173902 | 61 | 224 | 6.0 | 14.0 | 0.00 | 0.00 | 0.00 | 48 | 1005.8 |
| 20260504173744 | 61 | 249 | 8.0 | 14.0 | 0.00 | 0.00 | 0.00 | 47 | 1005.8 |
| 20260504173646 | 61 | 197 | 8.0 | 14.0 | 0.00 | 0.00 | 0.00 | 47 | 1005.8 |
| 20260504173608 | 61 | 250 | 8.0 | 14.0 | 0.00 | 0.00 | 0.00 | 47 | 1005.8 |
| 20260504173428 | 61 | 113 | 6.0 | 14.0 | 0.00 | 0.00 | 0.00 | 48 | 1005.9 |
| 20260504173328 | 61 | 91 | 9.0 | 14.0 | 0.00 | 0.00 | 0.00 | 47 | 1005.8 |
| 20260504173230 | 61 | 190 | 11.0 | 14.0 | 0.00 | 0.00 | 0.00 | 48 | 1005.8 |
| 20260504173152 | 61 | 175 | 10.0 | 14.0 | 0.00 | 0.00 | 0.00 | 48 | 1005.8 |
| 20260504173115 | 61 | 194 | 9.0 | 14.0 | 0.00 | 0.00 | 0.00 | 47 | 1005.9 |
| 20260504172939 | 61 | 179 | 5.0 | 14.0 | 0.00 | 0.00 | 0.00 | 48 | 1005.8 |
| 20260504172840 | 61 | 123 | 4.0 | 14.0 | 0.00 | 0.00 | 0.00 | 48 | 1005.8 |
| 20260504172724 | 61 | 184 | 3.0 | 17.0 | 0.00 | 0.00 | 0.00 | 48 | 1005.8 |
| 20260504172647 | 60 | 242 | 5.0 | 17.0 | 0.00 | 0.00 | 0.00 | 48 | 1005.8 |
| 20260504172529 | 60 | 144 | 7.0 | 17.0 | 0.00 | 0.00 | 0.00 | 47 | 1005.8 |
| 20260504172455 | 60 | 182 | 9.0 | 17.0 | 0.00 | 0.00 | 0.00 | 47 | 1005.8 |
| 20260504172416 | 60 | 152 | 9.0 | 17.0 | 0.00 | 0.00 | 0.00 | 47 | 1005.9 |
| 20260504172259 | 60 | 211 | 5.0 | 17.0 | 0.00 | 0.00 | 0.00 | 47 | 1005.9 |
| 20260504172139 | 60 | 168 | 5.0 | 17.0 | 0.00 | 0.00 | 0.00 | 47 | 1005.9 |
| 20260504172024 | 60 | 205 | 9.0 | 17.0 | 0.00 | 0.00 | 0.00 | 47 | 1005.9 |
| 20260504171945 | 60 | 169 | 11.0 | 17.0 | 0.00 | 0.00 | 0.00 | 48 | 1005.8 |
| 20260504171744 | 60 | 132 | 8.0 | 13.0 | 0.00 | 0.00 | 0.00 | 47 | 1005.9 |
| 20260504171638 | 60 | 184 | 6.0 | 14.0 | 0.00 | 0.00 | 0.00 | 47 | 1005.9 |
| 20260504171541 | 60 | 183 | 4.0 | 14.0 | 0.00 | 0.00 | 0.00 | 48 | 1005.9 |
| 20260504171444 | 60 | 234 | 5.0 | 20.0 | 0.00 | 0.00 | 0.00 | 47 | 1005.9 |
| 20260504171349 | 60 | 215 | 5.0 | 20.0 | 0.00 | 0.00 | 0.00 | 46 | 1005.9 |
| 20260504171311 | 60 | 196 | 5.0 | 20.0 | 0.00 | 0.00 | 0.00 | 46 | 1005.9 |
| 20260504171214 | 60 | 183 | 6.0 | 20.0 | 0.00 | 0.00 | 0.00 | 47 | 1006.0 |
| 20260504171136 | 59 | 161 | 5.0 | 20.0 | 0.00 | 0.00 | 0.00 | 46 | 1005.8 |
| 20260504171007 | 59 | 172 | 7.0 | 20.0 | 0.00 | 0.00 | 0.00 | 47 | 1005.9 |
| 20260504170921 | 59 | 244 | 9.0 | 20.0 | 0.00 | 0.00 | 0.00 | 47 | 1005.9 |
| 20260504170732 | 59 | 178 | 11.0 | 20.0 | 0.00 | 0.00 | 0.00 | 47 | 1006.0 |
| 20260504170626 | 59 | 157 | 9.0 | 19.0 | 0.00 | 0.00 | 0.00 | 46 | 1005.9 |
| 20260504170550 | 59 | 173 | 7.0 | 13.0 | 0.00 | 0.00 | 0.00 | 46 | 1005.9 |
| 20260504170504 | 59 | 133 | 7.0 | 13.0 | 0.00 | 0.00 | 0.00 | 46 | 1005.9 |
| 20260504170424 | 59 | 163 | 7.0 | 13.0 | 0.00 | 0.00 | 0.00 | 46 | 1006.0 |
| 20260504170236 | 59 | 146 | 6.0 | 15.0 | 0.00 | 0.00 | 0.00 | 46 | 1006.0 |
| 20260504170131 | 59 | 179 | 8.0 | 15.0 | 0.00 | 0.00 | 0.00 | 46 | 1006.1 |
| 20260504160445 | 52 | 153 | 5.0 | 8.0 | 0.00 | 0.00 | 0.00 | 37 | 1006.9 |
| 20260504160408 | 52 | 184 | 5.0 | 8.0 | 0.00 | 0.00 | 0.00 | 36 | 1006.9 |
| 20260504160314 | 52 | 149 | 6.0 | 8.0 | 0.00 | 0.00 | 0.00 | 37 | 1007.0 |
| 20260504160236 | 52 | 167 | 5.0 | 8.0 | 0.00 | 0.00 | 0.00 | 36 | 1007.0 |
| 20260504160105 | 52 | 190 | 3.0 | 7.0 | 0.00 | 0.00 | 0.00 | 34 | 1007.0 |
| 20260504151043 | 51 | 155 | 3.0 | 6.0 | 0.00 | 0.00 | 0.00 | 38 | 1007.3 |
| 20260504150946 | 51 | 211 | 3.0 | 6.0 | 0.00 | 0.00 | 0.00 | 40 | 1007.3 |
| 20260504150846 | 51 | 219 | 4.0 | 6.0 | 0.00 | 0.00 | 0.00 | 40 | 1007.3 |
| 20260504150809 | 51 | 229 | 3.0 | 6.0 | 0.00 | 0.00 | 0.00 | 39 | 1007.2 |
| 20260504150714 | 51 | 217 | 2.0 | 6.0 | 0.00 | 0.00 | 0.00 | 40 | 1007.2 |
| 20260504150614 | 51 | 193 | 2.0 | 3.0 | 0.00 | 0.00 | 0.00 | 40 | 1007.1 |
| 20260504150519 | 51 | 193 | 2.0 | 3.0 | 0.00 | 0.00 | 0.00 | 40 | 1007.2 |
| 20260504150323 | 51 | 205 | 1.0 | 3.0 | 0.00 | 0.00 | 0.00 | 40 | 1007.2 |
| 20260504150225 | 51 | 181 | 0.0 | 3.0 | 0.00 | 0.00 | 0.00 | 40 | 1007.3 |
| 20260504150127 | 51 | 203 | 1.0 | 3.0 | 0.00 | 0.00 | 0.00 | 40 | 1007.2 |
| 20260504141333 | 51 | 194 | 7.0 | 15.0 | 0.00 | 0.00 | 0.00 | 44 | 1006.7 |
| 20260504141136 | 51 | 173 | 8.0 | 15.0 | 0.00 | 0.00 | 0.00 | 44 | 1006.7 |
| 20260504141040 | 51 | 178 | 7.0 | 15.0 | 0.00 | 0.00 | 0.00 | 44 | 1006.6 |
| 20260504140922 | 51 | 175 | 9.0 | 15.0 | 0.00 | 0.00 | 0.00 | 44 | 1006.6 |
| 20260504140849 | 51 | 204 | 9.0 | 15.0 | 0.00 | 0.00 | 0.00 | 44 | 1006.6 |
| 20260504140723 | 51 | 176 | 7.0 | 14.0 | 0.00 | 0.00 | 0.00 | 43 | 1006.7 |
| 20260504140647 | 51 | 229 | 6.0 | 14.0 | 0.00 | 0.00 | 0.00 | 43 | 1006.7 |
| 20260504140530 | 51 | 216 | 5.0 | 14.0 | 0.00 | 0.00 | 0.00 | 43 | 1006.7 |
| 20260504140412 | 51 | 164 | 5.0 | 14.0 | 0.00 | 0.00 | 0.00 | 43 | 1006.7 |
| 20260504140346 | 51 | 167 | 5.0 | 14.0 | 0.00 | 0.00 | 0.00 | 44 | 1006.7 |
| 20260504140240 | 51 | 145 | 6.0 | 14.0 | 0.00 | 0.00 | 0.00 | 44 | 1006.7 |
| 20260504140204 | 51 | 153 | 7.0 | 14.0 | 0.00 | 0.00 | 0.00 | 44 | 1006.7 |
| 20260504140111 | 51 | 205 | 9.0 | 14.0 | 0.00 | 0.00 | 0.00 | 44 | 1006.7 |
| 20260504130821 | 50 | 174 | 8.0 | 19.0 | 0.00 | 0.00 | 0.00 | 40 | 1006.5 |
| 20260504130628 | 50 | 165 | 7.0 | 19.0 | 0.00 | 0.00 | 0.00 | 40 | 1006.4 |
| 20260504130550 | 50 | 234 | 9.0 | 19.0 | 0.00 | 0.00 | 0.00 | 40 | 1006.4 |
| 20260504130456 | 50 | 179 | 10.0 | 19.0 | 0.00 | 0.00 | 0.00 | 40 | 1006.4 |
| 20260504130417 | 50 | 150 | 11.0 | 21.0 | 0.00 | 0.00 | 0.00 | 40 | 1006.5 |
| 20260504130247 | 50 | 178 | 11.0 | 19.0 | 0.00 | 0.00 | 0.00 | 40 | 1006.4 |
| 20260504130142 | 50 | 172 | 10.0 | 19.0 | 0.00 | 0.00 | 0.00 | 39 | 1006.4 |
| 20260504130115 | 50 | 166 | 10.0 | 19.0 | 0.00 | 0.00 | 0.00 | 39 | 1006.5 |
| 20260504120238 | 49 | 175 | 8.0 | 18.0 | 0.00 | 0.00 | 0.00 | 23 | 1006.5 |
| 20260504120126 | 49 | 177 | 8.0 | 18.0 | 0.00 | 0.00 | 0.00 | 22 | 1006.5 |
| 20260504110659 | 47 | 162 | 8.0 | 15.0 | 0.00 | 0.00 | 0.00 | 1 | 1006.9 |
| 20260504110622 | 47 | 144 | 8.0 | 15.0 | 0.00 | 0.00 | 0.00 | 1 | 1006.8 |
| 20260504110505 | 47 | 157 | 8.0 | 15.0 | 0.00 | 0.00 | 0.00 | 1 | 1006.8 |
| 20260504110405 | 47 | 164 | 7.0 | 15.0 | 0.00 | 0.00 | 0.00 | 1 | 1006.8 |
| 20260504110217 | 47 | 162 | 7.0 | 15.0 | 0.00 | 0.00 | 0.00 | 1 | 1006.8 |
| 20260504110134 | 47 | 179 | 7.0 | 15.0 | 0.00 | 0.00 | 0.00 | 1 | 1006.8 |
| 20260504100534 | 46 | 180 | 5.0 | 10.0 | 0.00 | 0.00 | 0.00 | 1 | 1006.9 |
| 20260504100456 | 46 | 194 | 6.0 | 10.0 | 0.00 | 0.00 | 0.00 | 1 | 1006.9 |
| 20260504100418 | 46 | 186 | 6.0 | 10.0 | 0.00 | 0.00 | 0.00 | 1 | 1006.9 |
| 20260504100311 | 46 | 181 | 6.0 | 10.0 | 0.00 | 0.00 | 0.00 | 1 | 1007.0 |
| 20260504100120 | 46 | 116 | 6.0 | 10.0 | 0.00 | 0.00 | 0.00 | 1 | 1007.0 |
| 20260504090116 | 45 | 194 | 5.0 | 10.0 | 0.00 | 0.00 | 0.00 | 1 | 1007.3 |
| 20260504081953 | 45 | 193 | 5.0 | 10.0 | 0.00 | 0.00 | 0.00 | 1 | 1007.7 |
| 20260504081834 | 45 | 186 | 5.0 | 10.0 | 0.00 | 0.00 | 0.00 | 1 | 1007.6 |
| 20260504081729 | 45 | 209 | 4.0 | 10.0 | 0.00 | 0.00 | 0.00 | 1 | 1007.6 |
| 20260504081626 | 45 | 192 | 5.0 | 10.0 | 0.00 | 0.00 | 0.00 | 1 | 1007.6 |
| 20260504081526 | 45 | 170 | 4.0 | 11.0 | 0.00 | 0.00 | 0.00 | 1 | 1007.6 |
| 20260504081453 | 45 | 173 | 4.0 | 11.0 | 0.00 | 0.00 | 0.00 | 1 | 1007.6 |
| 20260504081335 | 45 | 203 | 4.0 | 11.0 | 0.00 | 0.00 | 0.00 | 1 | 1007.5 |
| 20260504081259 | 45 | 187 | 5.0 | 11.0 | 0.00 | 0.00 | 0.00 | 2 | 1007.5 |
| 20260504081225 | 45 | 204 | 6.0 | 13.0 | 0.00 | 0.00 | 0.00 | 2 | 1007.6 |
| 20260504081034 | 45 | 154 | 5.0 | 13.0 | 0.00 | 0.00 | 0.00 | 4 | 1007.7 |
| 20260504080928 | 45 | 207 | 5.0 | 13.0 | 0.00 | 0.00 | 0.00 | 4 | 1007.7 |
| 20260504080852 | 45 | 165 | 6.0 | 13.0 | 0.00 | 0.00 | 0.00 | 5 | 1007.7 |
| 20260504080757 | 45 | 187 | 6.0 | 13.0 | 0.00 | 0.00 | 0.00 | 5 | 1007.7 |
| 20260504080718 | 45 | 234 | 7.0 | 13.0 | 0.00 | 0.00 | 0.00 | 5 | 1007.7 |
| 20260504080525 | 45 | 164 | 8.0 | 13.0 | 0.00 | 0.00 | 0.00 | 7 | 1007.6 |
| 20260504080427 | 45 | 183 | 8.0 | 13.0 | 0.00 | 0.00 | 0.00 | 7 | 1007.6 |
| 20260504080323 | 45 | 175 | 8.0 | 13.0 | 0.00 | 0.00 | 0.00 | 7 | 1007.5 |
| 20260504080254 | 45 | 194 | 7.0 | 13.0 | 0.00 | 0.00 | 0.00 | 7 | 1007.6 |
| 20260504080136 | 45 | 186 | 7.0 | 13.0 | 0.00 | 0.00 | 0.00 | 8 | 1007.5 |
| 20260504070331 | 45 | 171 | 4.0 | 8.0 | 0.00 | 0.00 | 0.00 | 39 | 1007.7 |
| 20260504070254 | 45 | 187 | 3.0 | 8.0 | 0.00 | 0.00 | 0.00 | 39 | 1007.7 |
| 20260504070214 | 45 | 200 | 2.0 | 7.0 | 0.00 | 0.00 | 0.00 | 39 | 1007.6 |
| 20260504070117 | 45 | 140 | 2.0 | 4.0 | 0.00 | 0.00 | 0.00 | 38 | 1007.6 |
| 20260504060132 | 45 | 190 | 4.0 | 9.0 | 0.00 | 0.00 | 0.00 | 49 | 1008.1 |
| 20260504050731 | 45 | 165 | 4.0 | 10.0 | 0.00 | 0.00 | 0.00 | 51 | 1008.1 |
| 20260504050540 | 45 | 162 | 4.0 | 10.0 | 0.00 | 0.00 | 0.00 | 51 | 1008.0 |
| 20260504050438 | 45 | 171 | 5.0 | 10.0 | 0.00 | 0.00 | 0.00 | 51 | 1008.0 |
| 20260504050334 | 45 | 155 | 4.0 | 10.0 | 0.00 | 0.00 | 0.00 | 51 | 1008.0 |
| 20260504050255 | 45 | 160 | 4.0 | 10.0 | 0.00 | 0.00 | 0.00 | 51 | 1008.0 |
| 20260504050126 | 45 | 174 | 6.0 | 10.0 | 0.00 | 0.00 | 0.00 | 51 | 1008.0 |
| 20260504050019 | 45 | 163 | 5.0 | 11.0 | 0.00 | 0.00 | 0.00 | 51 | 1008.0 |
| 20260504045829 | 45 | 209 | 5.0 | 9.0 | 0.00 | 0.00 | 0.00 | 51 | 1008.0 |
| 20260504045743 | 45 | 182 | 4.0 | 9.0 | 0.00 | 0.00 | 0.00 | 51 | 1008.0 |
| 20260504045614 | 45 | 194 | 3.0 | 8.0 | 0.00 | 0.00 | 0.00 | 51 | 1008.1 |
| 20260504045535 | 45 | 157 | 3.0 | 8.0 | 0.00 | 0.00 | 0.00 | 51 | 1008.1 |
| 20260504045407 | 45 | 218 | 5.0 | 8.0 | 0.00 | 0.00 | 0.00 | 51 | 1008.1 |
| 20260504045223 | 45 | 192 | 6.0 | 8.0 | 0.00 | 0.00 | 0.00 | 51 | 1008.1 |
| 20260504045126 | 45 | 178 | 4.0 | 8.0 | 0.00 | 0.00 | 0.00 | 50 | 1008.1 |
| 20260504045026 | 45 | 190 | 4.0 | 7.0 | 0.00 | 0.00 | 0.00 | 50 | 1008.1 |
| 20260504044831 | 44 | 262 | 2.0 | 6.0 | 0.00 | 0.00 | 0.00 | 51 | 1008.2 |
| 20260504044732 | 44 | 229 | 2.0 | 6.0 | 0.00 | 0.00 | 0.00 | 50 | 1008.2 |
| 20260504044635 | 45 | 201 | 2.0 | 6.0 | 0.00 | 0.00 | 0.00 | 50 | 1008.2 |
| 20260504044535 | 45 | 192 | 2.0 | 6.0 | 0.00 | 0.00 | 0.00 | 50 | 1008.2 |
| 20260504044417 | 44 | 207 | 2.0 | 6.0 | 0.00 | 0.00 | 0.00 | 50 | 1008.2 |
| 20260504044333 | 44 | 205 | 3.0 | 7.0 | 0.00 | 0.00 | 0.00 | 50 | 1008.1 |
| 20260504044207 | 44 | 212 | 3.0 | 7.0 | 0.00 | 0.00 | 0.00 | 50 | 1008.1 |
| 20260504044107 | 44 | 162 | 2.0 | 8.0 | 0.00 | 0.00 | 0.00 | 50 | 1008.0 |
| 20260504043931 | 44 | 214 | 3.0 | 8.0 | 0.00 | 0.00 | 0.00 | 50 | 1008.2 |
| 20260504043852 | 44 | 199 | 4.0 | 8.0 | 0.00 | 0.00 | 0.00 | 50 | 1008.1 |
| 20260504043633 | 44 | 180 | 4.0 | 8.0 | 0.00 | 0.00 | 0.00 | 49 | 1008.0 |
| 20260504043557 | 44 | 164 | 4.0 | 8.0 | 0.00 | 0.00 | 0.00 | 49 | 1008.0 |
| 20260504043441 | 44 | 199 | 3.0 | 8.0 | 0.00 | 0.00 | 0.00 | 49 | 1008.1 |
| 20260504043403 | 44 | 150 | 4.0 | 8.0 | 0.00 | 0.00 | 0.00 | 49 | 1008.1 |
| 20260504043336 | 44 | 211 | 4.0 | 8.0 | 0.00 | 0.00 | 0.00 | 49 | 1008.1 |
| 20260504043143 | 44 | 196 | 3.0 | 7.0 | 0.00 | 0.00 | 0.00 | 49 | 1008.1 |
| 20260504043044 | 44 | 173 | 3.0 | 7.0 | 0.00 | 0.00 | 0.00 | 48 | 1008.1 |
| 20260504042938 | 44 | 180 | 4.0 | 7.0 | 0.00 | 0.00 | 0.00 | 48 | 1008.2 |
| 20260504042901 | 44 | 212 | 4.0 | 7.0 | 0.00 | 0.00 | 0.00 | 48 | 1008.2 |
| 20260504042805 | 44 | 183 | 4.0 | 7.0 | 0.00 | 0.00 | 0.00 | 48 | 1008.2 |
| 20260504042727 | 44 | 166 | 4.0 | 7.0 | 0.00 | 0.00 | 0.00 | 48 | 1008.2 |
| 20260504042529 | 43 | 171 | 5.0 | 7.0 | 0.00 | 0.00 | 0.00 | 47 | 1008.2 |
| 20260504042432 | 43 | 157 | 4.0 | 7.0 | 0.00 | 0.00 | 0.00 | 46 | 1008.2 |
| 20260504042335 | 43 | 196 | 4.0 | 7.0 | 0.00 | 0.00 | 0.00 | 46 | 1008.3 |
| 20260504042242 | 43 | 171 | 3.0 | 5.0 | 0.00 | 0.00 | 0.00 | 45 | 1008.3 |
| 20260504042155 | 43 | 208 | 3.0 | 5.0 | 0.00 | 0.00 | 0.00 | 45 | 1008.2 |
| 20260504042025 | 43 | 184 | 3.0 | 5.0 | 0.00 | 0.00 | 0.00 | 44 | 1008.2 |
| 20260504041924 | 43 | 180 | 3.0 | 6.0 | 0.00 | 0.00 | 0.00 | 44 | 1008.2 |
| 20260504041755 | 43 | 164 | 3.0 | 8.0 | 0.00 | 0.00 | 0.00 | 42 | 1008.2 |
| 20260504041629 | 42 | 188 | 3.0 | 8.0 | 0.00 | 0.00 | 0.00 | 40 | 1008.2 |
| 20260504041512 | 42 | 164 | 3.0 | 8.0 | 0.00 | 0.00 | 0.00 | 39 | 1008.3 |
| 20260504041444 | 42 | 200 | 3.0 | 8.0 | 0.00 | 0.00 | 0.00 | 37 | 1008.3 |
| 20260504041407 | 42 | 179 | 3.0 | 8.0 | 0.00 | 0.00 | 0.00 | 37 | 1008.3 |
| 20260504041311 | 42 | 184 | 3.0 | 8.0 | 0.00 | 0.00 | 0.00 | 37 | 1008.3 |
| 20260504041233 | 42 | 210 | 3.0 | 8.0 | 0.00 | 0.00 | 0.00 | 37 | 1008.3 |
| 20260504041108 | 41 | 215 | 4.0 | 8.0 | 0.00 | 0.00 | 0.00 | 32 | 1008.3 |
| 20260504040923 | 41 | 211 | 3.0 | 8.0 | 0.00 | 0.00 | 0.00 | 25 | 1008.3 |
| 20260504040835 | 41 | 209 | 3.0 | 6.0 | 0.00 | 0.00 | 0.00 | 22 | 1008.2 |
| 20260504040754 | 40 | 199 | 4.0 | 6.0 | 0.00 | 0.00 | 0.00 | 18 | 1008.2 |
| 20260504040713 | 40 | 198 | 4.0 | 7.0 | 0.00 | 0.00 | 0.00 | 11 | 1008.3 |
| 20260504040616 | 40 | 223 | 5.0 | 7.0 | 0.00 | 0.00 | 0.00 | 4 | 1008.4 |
| 20260504040518 | 39 | 173 | 4.0 | 7.0 | 0.00 | 0.00 | 0.00 | 1 | 1008.4 |
| 20260504040440 | 39 | 169 | 3.0 | 7.0 | 0.00 | 0.00 | 0.00 | 1 | 1008.4 |
| 20260504040309 | 39 | 197 | 2.0 | 7.0 | 0.00 | 0.00 | 0.00 | 1 | 1008.4 |
| 20260504040224 | 39 | 173 | 2.0 | 7.0 | 0.00 | 0.00 | 0.00 | 1 | 1008.4 |
| 20260504040037 | 38 | 201 | 3.0 | 7.0 | 0.00 | 0.00 | 0.00 | 1 | 1008.4 |
| 20260504035951 | 37 | 188 | 3.0 | 7.0 | 0.00 | 0.00 | 0.00 | 1 | 1008.3 |
| 20260504035741 | 36 | 185 | 3.0 | 5.0 | 0.00 | 0.00 | 0.00 | 1 | 1008.3 |
| 20260504035636 | 36 | 165 | 2.0 | 4.0 | 0.00 | 0.00 | 0.00 | 1 | 1008.3 |
| 20260504035505 | 36 | 204 | 2.0 | 3.0 | 0.00 | 0.00 | 0.00 | 1 | 1008.3 |
| 20260504035427 | 36 | 194 | 2.0 | 3.0 | 0.00 | 0.00 | 0.00 | 1 | 1008.3 |
| 20260504035230 | 35 | 194 | 1.0 | 3.0 | 0.00 | 0.00 | 0.00 | 1 | 1008.3 |
| 20260504035152 | 35 | 194 | 0.0 | 1.0 | 0.00 | 0.00 | 0.00 | 1 | 1008.3 |
| 20260504035056 | 35 | 194 | 0.0 | 1.0 | 0.00 | 0.00 | 0.00 | 1 | 1008.3 |
| 20260504035017 | 35 | 194 | 0.0 | 1.0 | 0.00 | 0.00 | 0.00 | 1 | 1008.3 |
| 20260504034831 | 35 | 194 | 0.0 | 1.0 | 0.00 | 0.00 | 0.00 | 1 | 1008.4 |
| 20260504034724 | 35 | 194 | 0.0 | 1.0 | 0.00 | 0.00 | 0.00 | 1 | 1008.4 |
| 20260504034648 | 35 | 194 | 0.0 | 1.0 | 0.00 | 0.00 | 0.00 | 1 | 1008.4 |
| 20260504034551 | 35 | 194 | 0.0 | 1.0 | 0.00 | 0.00 | 0.00 | 1 | 1008.4 |
| 20260504034514 | 35 | 194 | 0.0 | 1.0 | 0.00 | 0.00 | 0.00 | 1 | 1008.4 |
| 20260504034330 | 35 | 194 | 0.0 | 0.0 | 0.00 | 0.00 | 0.00 | 1 | 1008.4 |
| 20260504034231 | 35 | 194 | 0.0 | 0.0 | 0.00 | 0.00 | 0.00 | 1 | 1008.3 |
| 20260504034134 | 35 | 194 | 0.0 | 0.0 | 0.00 | 0.00 | 0.00 | 1 | 1008.4 |
| 20260504034057 | 35 | 194 | 0.0 | 0.0 | 0.00 | 0.00 | 0.00 | 1 | 1008.4 |
| 20260504033957 | 35 | 194 | 0.0 | 0.0 | 0.00 | 0.00 | 0.00 | 1 | 1008.4 |
| 20260504033906 | 35 | 194 | 0.0 | 0.0 | 0.00 | 0.00 | 0.00 | 1 | 1008.3 |
| 20260504033828 | 35 | 194 | 0.0 | 0.0 | 0.00 | 0.00 | 0.00 | 1 | 1008.3 |
| 20260504033631 | 34 | 194 | 0.0 | 0.0 | 0.00 | 0.00 | 0.00 | 1 | 1008.3 |
| 20260504033534 | 34 | 194 | 0.0 | 0.0 | 0.00 | 0.00 | 0.00 | 1 | 1008.4 |
| 20260504033437 | 34 | 194 | 0.0 | 0.0 | 0.00 | 0.00 | 0.00 | 1 | 1008.3 |
| 20260504033400 | 34 | 194 | 0.0 | 0.0 | 0.00 | 0.00 | 0.00 | 1 | 1008.3 |
| 20260504033322 | 34 | 194 | 0.0 | 0.0 | 0.00 | 0.00 | 0.00 | 1 | 1008.4 |
| 20260504033124 | 34 | 194 | 0.0 | 0.0 | 0.00 | 0.00 | 0.00 | 1 | 1008.3 |
| 20260504033047 | 34 | 194 | 0.0 | 0.0 | 0.00 | 0.00 | 0.00 | 1 | 1008.3 |
| 20260504032935 | 34 | 194 | 0.0 | 0.0 | 0.00 | 0.00 | 0.00 | 1 | 1008.3 |
| 20260504032906 | 34 | 194 | 0.0 | 0.0 | 0.00 | 0.00 | 0.00 | 1 | 1008.2 |
| 20260504032737 | 34 | 194 | 0.0 | 0.0 | 0.00 | 0.00 | 0.00 | 1 | 1008.2 |
| 20260504032630 | 34 | 194 | 0.0 | 0.0 | 0.00 | 0.00 | 0.00 | 1 | 1008.2 |
| 20260504032500 | 34 | 194 | 0.0 | 0.0 | 0.00 | 0.00 | 0.00 | 1 | 1008.4 |
| 20260504032401 | 34 | 194 | 0.0 | 0.0 | 0.00 | 0.00 | 0.00 | 1 | 1008.4 |
| 20260504032223 | 34 | 194 | 0.0 | 0.0 | 0.00 | 0.00 | 0.00 | 1 | 1008.3 |
| 20260504032144 | 34 | 194 | 0.0 | 0.0 | 0.00 | 0.00 | 0.00 | 1 | 1008.3 |
| 20260504032026 | 34 | 194 | 0.0 | 0.0 | 0.00 | 0.00 | 0.00 | 1 | 1008.3 |
| 20260504031948 | 34 | 194 | 0.0 | 0.0 | 0.00 | 0.00 | 0.00 | 1 | 1008.3 |
| 20260504031729 | 34 | 194 | 0.0 | 0.0 | 0.00 | 0.00 | 0.00 | 1 | 1008.3 |
| 20260504031634 | 34 | 194 | 0.0 | 0.0 | 0.00 | 0.00 | 0.00 | 1 | 1008.3 |
| 20260504031537 | 34 | 194 | 0.0 | 0.0 | 0.00 | 0.00 | 0.00 | 1 | 1008.3 |
| 20260504031500 | 34 | 194 | 0.0 | 0.0 | 0.00 | 0.00 | 0.00 | 1 | 1008.3 |
| 20260504031421 | 34 | 194 | 0.0 | 0.0 | 0.00 | 0.00 | 0.00 | 1 | 1008.3 |
| 20260504031224 | 34 | 194 | 0.0 | 0.0 | 0.00 | 0.00 | 0.00 | 1 | 1008.3 |
| 20260504031146 | 34 | 194 | 0.0 | 0.0 | 0.00 | 0.00 | 0.00 | 1 | 1008.3 |
| 20260504031028 | 34 | 194 | 0.0 | 0.0 | 0.00 | 0.00 | 0.00 | 1 | 1008.3 |
| 20260504030951 | 34 | 194 | 0.0 | 0.0 | 0.00 | 0.00 | 0.00 | 1 | 1008.3 |
| 20260504030914 | 34 | 194 | 0.0 | 0.0 | 0.00 | 0.00 | 0.00 | 1 | 1008.3 |
| 20260504030756 | 34 | 194 | 0.0 | 0.0 | 0.00 | 0.00 | 0.00 | 1 | 1008.3 |
| 20260504030721 | 34 | 194 | 0.0 | 0.0 | 0.00 | 0.00 | 0.00 | 1 | 1008.3 |
| 20260504030526 | 34 | 194 | 0.0 | 0.0 | 0.00 | 0.00 | 0.00 | 1 | 1008.3 |
| 20260504030446 | 34 | 194 | 0.0 | 0.0 | 0.00 | 0.00 | 0.00 | 1 | 1008.3 |
| 20260504030326 | 34 | 194 | 0.0 | 0.0 | 0.00 | 0.00 | 0.00 | 1 | 1008.3 |
| 20260504030218 | 34 | 194 | 0.0 | 0.0 | 0.00 | 0.00 | 0.00 | 1 | 1008.3 |
| 20260504030028 | 34 | 194 | 0.0 | 0.0 | 0.00 | 0.00 | 0.00 | 1 | 1008.4 |
| 20260504025945 | 34 | 194 | 0.0 | 0.0 | 0.00 | 0.00 | 0.00 | 1 | 1008.4 |
| 20260504025816 | 34 | 194 | 0.0 | 0.0 | 0.00 | 0.00 | 0.00 | 1 | 1008.4 |
| 20260504025715 | 34 | 194 | 0.0 | 0.0 | 0.00 | 0.00 | 0.00 | 1 | 1008.4 |
| 20260504025536 | 34 | 194 | 0.0 | 0.0 | 0.00 | 0.00 | 0.00 | 1 | 1008.4 |
| 20260504025503 | 34 | 194 | 0.0 | 0.0 | 0.00 | 0.00 | 0.00 | 1 | 1008.4 |
| 20260504025325 | 34 | 194 | 0.0 | 0.0 | 0.00 | 0.00 | 0.00 | 1 | 1008.3 |
| 20260504025247 | 34 | 194 | 0.0 | 0.0 | 0.00 | 0.00 | 0.00 | 1 | 1008.3 |
| 20260504025207 | 34 | 194 | 0.0 | 0.0 | 0.00 | 0.00 | 0.00 | 1 | 1008.3 |
| 20260504025111 | 34 | 194 | 0.0 | 0.0 | 0.00 | 0.00 | 0.00 | 1 | 1008.3 |
| 20260504025034 | 34 | 194 | 0.0 | 0.0 | 0.00 | 0.00 | 0.00 | 1 | 1008.3 |